Time,TemperatureF,DewpointF,PressureIn,WindDirection,WindDirectionDegrees,WindSpeedMPH,WindSpeedGustMPH,Humidity,HourlyPrecipIn,Conditions,Clouds,dailyrainin,SoftwareType,DateUTC
2013-02-21 00:00:00,27.0,19.8,30.26,NNW,343,5.0,7.0,74,0.00,,---,0.00,VWS V14.01,2013-02-21 06:00:00,
2013-02-21 00:01:00,27.1,19.9,30.26,North,2,4.0,7.0,74,0.00,,---,0.00,VWS V14.01,2013-02-21 06:01:00,
2013-02-21 00:02:00,27.0,19.8,30.26,NNW,330,4.0,7.0,74,0.00,,---,0.00,VWS V14.01,2013-02-21 06:02:00,
2013-02-21 00:06:00,27.0,19.8,30.25,North,352,5.0,7.0,74,0.00,,---,0.00,VWS V14.01,2013-02-21 06:06:00,
2013-02-21 00:07:00,27.1,19.9,30.25,NNW,346,6.0,7.0,74,0.00,,---,0.00,VWS V14.01,2013-02-21 06:07:00,
2013-02-21 00:11:00,27.0,19.8,30.25,North,8,6.0,7.0,74,0.00,,---,0.00,VWS V14.01,2013-02-21 06:11:00,
2013-02-21 00:12:00,27.0,19.8,30.25,North,2,3.0,7.0,74,0.00,,---,0.00,VWS V14.01,2013-02-21 06:12:00,
2013-02-21 00:13:00,27.0,19.8,30.25,NNE,12,5.0,7.0,74,0.00,,---,0.00,VWS V14.01,2013-02-21 06:13:00,
2013-02-21 00:16:00,27.0,19.8,30.26,NNE,19,6.0,8.0,74,0.00,,---,0.00,VWS V14.01,2013-02-21 06:16:00,
2013-02-21 00:17:00,27.0,19.8,30.26,North,356,4.0,8.0,74,0.00,,---,0.00,VWS V14.01,2013-02-21 06:17:00,
2013-02-21 00:18:00,27.0,19.8,30.26,NW,325,5.0,11.0,74,0.00,,---,0.00,VWS V14.01,2013-02-21 06:18:00,
2013-02-21 00:22:00,27.0,19.8,30.25,NW,325,3.0,11.0,74,0.00,,---,0.00,VWS V14.01,2013-02-21 06:22:00,
2013-02-21 00:23:00,27.0,19.8,30.26,NW,320,5.0,11.0,74,0.00,,---,0.00,VWS V14.01,2013-02-21 06:23:00,
2013-02-21 00:27:00,27.0,19.8,30.26,North,354,6.0,11.0,74,0.00,,---,0.00,VWS V14.01,2013-02-21 06:27:00,
2013-02-21 00:28:00,27.0,19.8,30.26,NNW,335,5.0,5.0,74,0.00,,---,0.00,VWS V14.01,2013-02-21 06:28:00,
2013-02-21 00:29:00,27.0,19.8,30.26,NNE,21,7.0,7.0,74,0.00,,---,0.00,VWS V14.01,2013-02-21 06:29:00,
2013-02-21 00:30:00,27.0,19.8,30.26,NNW,343,5.0,11.0,74,0.00,,---,0.00,VWS V14.01,2013-02-21 06:30:00,
2013-02-21 00:32:00,27.1,19.9,30.26,NNW,341,2.0,8.0,74,0.00,,---,0.00,VWS V14.01,2013-02-21 06:32:00,
2013-02-21 00:33:00,27.1,19.9,30.27,North,356,2.0,8.0,74,0.00,,---,0.00,VWS V14.01,2013-02-21 06:33:00,
2013-02-21 00:34:00,27.1,19.9,30.26,NNW,347,4.0,8.0,74,0.00,,---,0.00,VWS V14.01,2013-02-21 06:34:00,
2013-02-21 00:37:00,27.1,19.9,30.26,North,3,4.0,8.0,74,0.00,,---,0.00,VWS V14.01,2013-02-21 06:37:00,
2013-02-21 00:38:00,27.1,19.6,30.26,NNW,347,3.0,8.0,73,0.00,,---,0.00,VWS V14.01,2013-02-21 06:38:00,
2013-02-21 00:39:00,27.1,19.6,30.26,NNW,335,6.0,8.0,73,0.00,,---,0.00,VWS V14.01,2013-02-21 06:39:00,
2013-02-21 00:42:00,27.1,19.6,30.26,NNE,20,2.0,8.0,73,0.00,,---,0.00,VWS V14.01,2013-02-21 06:42:00,
2013-02-21 00:43:00,27.1,19.6,30.26,North,350,3.0,8.0,73,0.00,,---,0.00,VWS V14.01,2013-02-21 06:43:00,
2013-02-21 00:44:00,27.1,19.6,30.26,NNE,25,4.0,8.0,73,0.00,,---,0.00,VWS V14.01,2013-02-21 06:44:00,
2013-02-21 00:47:00,27.1,19.6,30.27,NNE,21,2.0,8.0,73,0.00,,---,0.00,VWS V14.01,2013-02-21 06:47:00,
2013-02-21 00:48:00,27.1,19.6,30.27,NNE,21,3.0,8.0,73,0.00,,---,0.00,VWS V14.01,2013-02-21 06:48:00,
2013-02-21 00:49:00,27.1,19.6,30.26,NNW,347,5.0,8.0,73,0.00,,---,0.00,VWS V14.01,2013-02-21 06:49:00,
2013-02-21 00:52:00,27.1,19.6,30.27,NNE,23,6.0,8.0,73,0.00,,---,0.00,VWS V14.01,2013-02-21 06:52:00,
2013-02-21 00:53:00,27.1,19.6,30.26,NE,43,5.0,8.0,73,0.00,,---,0.00,VWS V14.01,2013-02-21 06:53:00,
2013-02-21 00:54:00,27.1,19.6,30.26,North,357,6.0,8.0,73,0.00,,---,0.00,VWS V14.01,2013-02-21 06:54:00,
2013-02-21 00:58:00,27.1,19.9,30.26,NE,37,3.0,3.0,74,0.00,,---,0.00,VWS V14.01,2013-02-21 06:58:00,
2013-02-21 00:59:00,27.1,19.9,30.26,NE,38,3.0,4.0,74,0.00,,---,0.00,VWS V14.01,2013-02-21 06:59:00,
2013-02-21 01:00:00,27.1,19.9,30.26,NE,37,2.0,8.0,74,0.00,,---,0.00,VWS V14.01,2013-02-21 07:00:00,
2013-02-21 01:03:00,27.1,19.9,30.26,North,3,3.0,4.0,74,0.00,,---,0.00,VWS V14.01,2013-02-21 07:03:00,
2013-02-21 01:04:00,27.1,19.9,30.26,NE,39,3.0,4.0,74,0.00,,---,0.00,VWS V14.01,2013-02-21 07:04:00,
2013-02-21 01:08:00,27.1,19.9,30.26,NNE,25,1.0,4.0,74,0.00,,---,0.00,VWS V14.01,2013-02-21 07:08:00,
2013-02-21 01:09:00,27.0,19.8,30.26,NNE,25,3.0,4.0,74,0.00,,---,0.00,VWS V14.01,2013-02-21 07:09:00,
2013-02-21 01:13:00,27.0,19.5,30.26,North,6,3.0,8.0,73,0.00,,---,0.00,VWS V14.01,2013-02-21 07:13:00,
2013-02-21 01:14:00,27.0,19.5,30.26,NNE,15,3.0,8.0,73,0.00,,---,0.00,VWS V14.01,2013-02-21 07:14:00,
2013-02-21 01:18:00,26.9,19.4,30.26,ENE,64,5.0,8.0,73,0.00,,---,0.00,VWS V14.01,2013-02-21 07:18:00,
2013-02-21 01:19:00,26.9,19.4,30.26,North,10,3.0,8.0,73,0.00,,---,0.00,VWS V14.01,2013-02-21 07:19:00,
2013-02-21 01:20:00,26.9,19.4,30.26,North,2,1.0,8.0,73,0.00,,---,0.00,VWS V14.01,2013-02-21 07:20:00,
2013-02-21 01:23:00,26.9,19.7,30.25,North,360,4.0,8.0,74,0.00,,---,0.00,VWS V14.01,2013-02-21 07:23:00,
2013-02-21 01:24:00,26.9,19.7,30.25,North,360,4.0,8.0,74,0.00,,---,0.00,VWS V14.01,2013-02-21 07:24:00,
2013-02-21 01:25:00,26.9,19.7,30.25,North,352,3.0,8.0,74,0.00,,---,0.00,VWS V14.01,2013-02-21 07:25:00,
2013-02-21 01:28:00,26.9,19.7,30.26,North,352,2.0,3.0,74,0.00,,---,0.00,VWS V14.01,2013-02-21 07:28:00,
2013-02-21 01:29:00,26.9,19.7,30.26,North,352,2.0,3.0,74,0.00,,---,0.00,VWS V14.01,2013-02-21 07:29:00,
2013-02-21 01:30:00,26.9,19.7,30.26,NNE,12,4.0,4.0,74,0.00,,---,0.00,VWS V14.01,2013-02-21 07:30:00,
2013-02-21 01:34:00,26.9,19.7,30.26,North,358,5.0,6.0,74,0.00,,---,0.00,VWS V14.01,2013-02-21 07:34:00,
2013-02-21 01:35:00,26.9,19.4,30.27,North,8,2.0,8.0,73,0.00,,---,0.00,VWS V14.01,2013-02-21 07:35:00,
2013-02-21 01:39:00,26.9,19.4,30.27,North,8,2.0,8.0,73,0.00,,---,0.00,VWS V14.01,2013-02-21 07:39:00,
2013-02-21 01:40:00,26.9,19.4,30.27,North,8,3.0,8.0,73,0.00,,---,0.00,VWS V14.01,2013-02-21 07:40:00,
2013-02-21 01:44:00,26.9,19.4,30.27,NNE,16,3.0,8.0,73,0.00,,---,0.00,VWS V14.01,2013-02-21 07:44:00,
2013-02-21 01:45:00,26.9,19.4,30.27,NNE,16,3.0,8.0,73,0.00,,---,0.00,VWS V14.01,2013-02-21 07:45:00,
2013-02-21 01:46:00,26.9,19.4,30.27,NNE,16,4.0,8.0,73,0.00,,---,0.00,VWS V14.01,2013-02-21 07:46:00,
2013-02-21 01:49:00,26.9,19.4,30.27,NNE,29,4.0,8.0,73,0.00,,---,0.00,VWS V14.01,2013-02-21 07:49:00,
2013-02-21 01:50:00,26.9,19.1,30.27,NNE,29,3.0,8.0,72,0.00,,---,0.00,VWS V14.01,2013-02-21 07:50:00,
2013-02-21 01:51:00,26.9,19.1,30.27,NNE,29,2.0,8.0,72,0.00,,---,0.00,VWS V14.01,2013-02-21 07:51:00,
2013-02-21 01:54:00,26.9,19.4,30.27,NNE,28,5.0,8.0,73,0.00,,---,0.00,VWS V14.01,2013-02-21 07:54:00,
2013-02-21 01:56:00,26.9,19.4,30.27,North,358,6.0,8.0,73,0.00,,---,0.00,VWS V14.01,2013-02-21 07:56:00,
2013-02-21 01:59:00,26.9,19.1,30.27,NNE,13,3.0,9.0,72,0.00,,---,0.00,VWS V14.01,2013-02-21 07:59:00,
2013-02-21 02:00:00,26.9,19.4,30.27,North,4,7.0,10.0,73,0.00,,---,0.00,VWS V14.01,2013-02-21 08:00:00,
2013-02-21 02:01:00,26.8,19.0,30.27,North,8,5.0,9.0,72,0.00,,---,0.00,VWS V14.01,2013-02-21 08:01:00,
2013-02-21 02:04:00,26.8,19.0,30.27,North,4,4.0,9.0,72,0.00,,---,0.00,VWS V14.01,2013-02-21 08:04:00,
2013-02-21 02:05:00,26.8,19.0,30.27,North,357,3.0,9.0,72,0.00,,---,0.00,VWS V14.01,2013-02-21 08:05:00,
2013-02-21 02:06:00,26.8,19.3,30.26,North,356,4.0,9.0,73,0.00,,---,0.00,VWS V14.01,2013-02-21 08:06:00,
2013-02-21 02:09:00,26.8,19.3,30.27,NNW,335,4.0,9.0,73,0.00,,---,0.00,VWS V14.01,2013-02-21 08:09:00,
2013-02-21 02:10:00,26.8,19.3,30.27,North,8,6.0,9.0,73,0.00,,---,0.00,VWS V14.01,2013-02-21 08:10:00,
2013-02-21 02:11:00,26.8,19.3,30.27,NNW,348,5.0,9.0,73,0.00,,---,0.00,VWS V14.01,2013-02-21 08:11:00,
2013-02-21 02:12:00,26.8,19.3,30.27,NNW,335,3.0,9.0,73,0.00,,---,0.00,VWS V14.01,2013-02-21 08:12:00,
2013-02-21 02:15:00,26.8,19.3,30.27,NNW,345,7.0,9.0,73,0.00,,---,0.00,VWS V14.01,2013-02-21 08:15:00,
2013-02-21 02:16:00,26.9,19.4,30.27,North,358,6.0,9.0,73,0.00,,---,0.00,VWS V14.01,2013-02-21 08:16:00,
2013-02-21 02:17:00,26.9,19.4,30.27,NNW,341,5.0,9.0,73,0.00,,---,0.00,VWS V14.01,2013-02-21 08:17:00,
2013-02-21 02:20:00,26.9,19.4,30.27,North,2,4.0,9.0,73,0.00,,---,0.00,VWS V14.01,2013-02-21 08:20:00,
2013-02-21 02:21:00,26.9,19.7,30.27,NW,325,2.0,9.0,74,0.00,,---,0.00,VWS V14.01,2013-02-21 08:21:00,
2013-02-21 02:22:00,26.9,19.7,30.27,NW,325,3.0,9.0,74,0.00,,---,0.00,VWS V14.01,2013-02-21 08:22:00,
2013-02-21 02:25:00,26.9,19.7,30.27,NNW,335,4.0,9.0,74,0.00,,---,0.00,VWS V14.01,2013-02-21 08:25:00,
2013-02-21 02:26:00,26.9,19.7,30.27,North,8,4.0,9.0,74,0.00,,---,0.00,VWS V14.01,2013-02-21 08:26:00,
2013-02-21 02:27:00,26.9,19.4,30.27,North,8,3.0,9.0,73,0.00,,---,0.00,VWS V14.01,2013-02-21 08:27:00,
2013-02-21 02:30:00,26.9,19.7,30.25,NNE,31,7.0,7.0,74,0.00,,---,0.00,VWS V14.01,2013-02-21 08:30:00,
2013-02-21 02:31:00,26.9,19.7,30.25,NNW,341,5.0,7.0,74,0.00,,---,0.00,VWS V14.01,2013-02-21 08:31:00,
2013-02-21 02:32:00,26.9,19.4,30.25,North,8,4.0,9.0,73,0.00,,---,0.00,VWS V14.01,2013-02-21 08:32:00,
2013-02-21 02:35:00,26.8,19.3,30.26,North,352,5.0,9.0,73,0.00,,---,0.00,VWS V14.01,2013-02-21 08:35:00,
2013-02-21 02:36:00,26.8,19.3,30.26,NNE,17,3.0,9.0,73,0.00,,---,0.00,VWS V14.01,2013-02-21 08:36:00,
2013-02-21 02:37:00,26.8,19.3,30.25,North,10,5.0,9.0,73,0.00,,---,0.00,VWS V14.01,2013-02-21 08:37:00,
2013-02-21 02:41:00,26.8,19.6,30.25,North,349,8.0,9.0,74,0.00,,---,0.00,VWS V14.01,2013-02-21 08:41:00,
2013-02-21 02:42:00,26.7,19.2,30.24,NNW,341,5.0,9.0,73,0.00,,---,0.00,VWS V14.01,2013-02-21 08:42:00,
2013-02-21 02:43:00,26.7,19.2,30.24,NW,325,5.0,9.0,73,0.00,,---,0.00,VWS V14.01,2013-02-21 08:43:00,
2013-02-21 02:46:00,26.7,19.2,30.23,North,2,4.0,10.0,73,0.00,,---,0.00,VWS V14.01,2013-02-21 08:46:00,
2013-02-21 02:47:00,26.7,19.2,30.23,North,350,7.0,10.0,73,0.00,,---,0.00,VWS V14.01,2013-02-21 08:47:00,
2013-02-21 02:48:00,26.7,19.2,30.23,North,358,7.0,10.0,73,0.00,,---,0.00,VWS V14.01,2013-02-21 08:48:00,
2013-02-21 02:51:00,26.7,19.5,30.24,NNW,330,2.0,10.0,74,0.00,,---,0.00,VWS V14.01,2013-02-21 08:51:00,
2013-02-21 02:53:00,26.7,19.5,30.24,NNW,335,3.0,10.0,74,0.00,,---,0.00,VWS V14.01,2013-02-21 08:53:00,
2013-02-21 02:56:00,26.7,19.5,30.24,NW,325,3.0,10.0,74,0.00,,---,0.00,VWS V14.01,2013-02-21 08:56:00,
2013-02-21 02:57:00,26.7,19.5,30.24,NNE,25,6.0,10.0,74,0.00,,---,0.00,VWS V14.01,2013-02-21 08:57:00,
2013-02-21 02:58:00,26.7,19.5,30.24,North,356,8.0,8.0,74,0.00,,---,0.00,VWS V14.01,2013-02-21 08:58:00,
2013-02-21 03:00:00,26.7,19.5,30.24,North,4,4.0,10.0,74,0.00,,---,0.00,VWS V14.01,2013-02-21 09:00:00,
2013-02-21 03:01:00,26.7,19.5,30.24,NNE,22,3.0,8.0,74,0.00,,---,0.00,VWS V14.01,2013-02-21 09:01:00,
2013-02-21 03:02:00,26.7,19.5,30.24,NNW,335,4.0,8.0,74,0.00,,---,0.00,VWS V14.01,2013-02-21 09:02:00,
2013-02-21 03:03:00,26.7,19.5,30.24,North,360,3.0,8.0,74,0.00,,---,0.00,VWS V14.01,2013-02-21 09:03:00,
2013-02-21 03:04:00,26.7,19.5,30.24,North,349,4.0,8.0,74,0.00,,---,0.00,VWS V14.01,2013-02-21 09:04:00,
2013-02-21 03:06:00,26.7,19.5,30.24,NNE,19,2.0,8.0,74,0.00,,---,0.00,VWS V14.01,2013-02-21 09:06:00,
2013-02-21 03:08:00,26.7,19.5,30.24,NNW,345,4.0,8.0,74,0.00,,---,0.00,VWS V14.01,2013-02-21 09:08:00,
2013-02-21 03:09:00,26.7,19.5,30.24,North,8,4.0,8.0,74,0.00,,---,0.00,VWS V14.01,2013-02-21 09:09:00,
2013-02-21 03:12:00,26.7,19.5,30.23,NNW,344,4.0,8.0,74,0.00,,---,0.00,VWS V14.01,2013-02-21 09:12:00,
2013-02-21 03:13:00,26.7,19.5,30.23,NNW,339,4.0,8.0,74,0.00,,---,0.00,VWS V14.01,2013-02-21 09:13:00,
2013-02-21 03:14:00,26.7,19.5,30.23,NNW,348,7.0,9.0,74,0.00,,---,0.00,VWS V14.01,2013-02-21 09:14:00,
2013-02-21 03:17:00,26.7,19.5,30.24,NNW,330,3.0,9.0,74,0.00,,---,0.00,VWS V14.01,2013-02-21 09:17:00,
2013-02-21 03:18:00,26.7,19.5,30.24,North,356,8.0,9.0,74,0.00,,---,0.00,VWS V14.01,2013-02-21 09:18:00,
2013-02-21 03:19:00,26.6,19.4,30.24,NNW,330,4.0,9.0,74,0.00,,---,0.00,VWS V14.01,2013-02-21 09:19:00,
2013-02-21 03:22:00,26.6,19.4,30.23,North,354,7.0,9.0,74,0.00,,---,0.00,VWS V14.01,2013-02-21 09:22:00,
2013-02-21 03:23:00,26.6,19.4,30.23,North,4,4.0,9.0,74,0.00,,---,0.00,VWS V14.01,2013-02-21 09:23:00,
2013-02-21 03:24:00,26.6,19.1,30.24,NNE,12,3.0,9.0,73,0.00,,---,0.00,VWS V14.01,2013-02-21 09:24:00,
2013-02-21 03:27:00,26.7,19.5,30.24,NNE,31,7.0,10.0,74,0.00,,---,0.00,VWS V14.01,2013-02-21 09:27:00,
2013-02-21 03:28:00,26.7,19.5,30.24,NE,37,7.0,11.0,74,0.00,,---,0.00,VWS V14.01,2013-02-21 09:28:00,
2013-02-21 03:29:00,26.6,19.4,30.24,NE,36,5.0,11.0,74,0.00,,---,0.00,VWS V14.01,2013-02-21 09:29:00,
2013-02-21 03:30:00,26.6,19.4,30.24,NNE,33,10.0,10.0,74,0.00,,---,0.00,VWS V14.01,2013-02-21 09:30:00,
2013-02-21 03:32:00,26.6,19.4,30.24,NNW,346,9.0,11.0,74,0.00,,---,0.00,VWS V14.01,2013-02-21 09:32:00,
2013-02-21 03:33:00,26.6,19.1,30.24,North,358,5.0,11.0,73,0.00,,---,0.00,VWS V14.01,2013-02-21 09:33:00,
2013-02-21 03:34:00,26.6,19.1,30.24,North,8,6.0,11.0,73,0.00,,---,0.00,VWS V14.01,2013-02-21 09:34:00,
2013-02-21 03:35:00,26.6,19.1,30.24,North,9,4.0,11.0,73,0.00,,---,0.00,VWS V14.01,2013-02-21 09:35:00,
2013-02-21 03:37:00,26.6,19.4,30.24,North,9,6.0,11.0,74,0.00,,---,0.00,VWS V14.01,2013-02-21 09:37:00,
2013-02-21 03:38:00,26.5,19.0,30.24,North,359,6.0,11.0,73,0.00,,---,0.00,VWS V14.01,2013-02-21 09:38:00,
2013-02-21 03:39:00,26.6,19.1,30.24,North,359,4.0,11.0,73,0.00,,---,0.00,VWS V14.01,2013-02-21 09:39:00,
2013-02-21 03:40:00,26.5,19.0,30.24,North,353,3.0,11.0,73,0.00,,---,0.00,VWS V14.01,2013-02-21 09:40:00,
2013-02-21 03:42:00,26.6,19.4,30.24,North,3,6.0,11.0,74,0.00,,---,0.00,VWS V14.01,2013-02-21 09:42:00,
2013-02-21 03:43:00,26.6,19.1,30.24,North,10,6.0,11.0,73,0.00,,---,0.00,VWS V14.01,2013-02-21 09:43:00,
2013-02-21 03:44:00,26.5,19.0,30.24,NNE,14,5.0,11.0,73,0.00,,---,0.00,VWS V14.01,2013-02-21 09:44:00,
2013-02-21 03:45:00,26.5,19.0,30.24,NNE,19,4.0,11.0,73,0.00,,---,0.00,VWS V14.01,2013-02-21 09:45:00,
2013-02-21 03:47:00,26.6,19.4,30.24,NNE,26,1.0,11.0,74,0.00,,---,0.00,VWS V14.01,2013-02-21 09:47:00,
2013-02-21 03:48:00,26.6,19.4,30.24,NNE,26,1.0,11.0,74,0.00,,---,0.00,VWS V14.01,2013-02-21 09:48:00,
2013-02-21 03:49:00,26.6,19.4,30.24,NW,325,3.0,11.0,74,0.00,,---,0.00,VWS V14.01,2013-02-21 09:49:00,
2013-02-21 03:50:00,26.6,19.4,30.24,NNE,17,4.0,11.0,74,0.00,,---,0.00,VWS V14.01,2013-02-21 09:50:00,
2013-02-21 03:52:00,26.6,19.4,30.24,NNE,16,4.0,11.0,74,0.00,,---,0.00,VWS V14.01,2013-02-21 09:52:00,
2013-02-21 03:53:00,26.6,19.4,30.24,North,10,3.0,11.0,74,0.00,,---,0.00,VWS V14.01,2013-02-21 09:53:00,
2013-02-21 03:54:00,26.6,19.8,30.24,NNW,347,4.0,11.0,75,0.00,,---,0.00,VWS V14.01,2013-02-21 09:54:00,
2013-02-21 03:55:00,26.7,19.9,30.24,NNE,14,4.0,11.0,75,0.00,,---,0.00,VWS V14.01,2013-02-21 09:55:00,
2013-02-21 03:58:00,26.7,19.5,30.24,NNE,22,5.0,6.0,74,0.00,,---,0.00,VWS V14.01,2013-02-21 09:58:00,
2013-02-21 04:00:00,26.7,19.5,30.23,North,10,6.0,8.0,74,0.00,,---,0.00,VWS V14.01,2013-02-21 10:00:00,
2013-02-21 04:03:00,26.6,19.4,30.23,NNE,29,8.0,10.0,74,0.00,,---,0.00,VWS V14.01,2013-02-21 10:03:00,
2013-02-21 04:04:00,26.6,19.4,30.23,North,3,9.0,12.0,74,0.00,,---,0.00,VWS V14.01,2013-02-21 10:04:00,
2013-02-21 04:05:00,26.6,19.1,30.23,NNE,25,8.0,12.0,73,0.00,,---,0.00,VWS V14.01,2013-02-21 10:05:00,
2013-02-21 04:08:00,26.6,19.1,30.23,NE,43,10.0,12.0,73,0.00,,---,0.00,VWS V14.01,2013-02-21 10:08:00,
2013-02-21 04:09:00,26.6,19.1,30.23,NNE,21,5.0,12.0,73,0.00,,---,0.00,VWS V14.01,2013-02-21 10:09:00,
2013-02-21 04:10:00,26.6,19.1,30.23,North,9,4.0,12.0,73,0.00,,---,0.00,VWS V14.01,2013-02-21 10:10:00,
2013-02-21 04:13:00,26.6,19.1,30.22,NNE,29,5.0,12.0,73,0.00,,---,0.00,VWS V14.01,2013-02-21 10:13:00,
2013-02-21 04:14:00,26.6,19.1,30.22,NNE,30,3.0,12.0,73,0.00,,---,0.00,VWS V14.01,2013-02-21 10:14:00,
2013-02-21 04:15:00,26.6,19.4,30.23,NNE,24,4.0,12.0,74,0.00,,---,0.00,VWS V14.01,2013-02-21 10:15:00,
2013-02-21 04:16:00,26.6,19.4,30.23,NE,42,4.0,12.0,74,0.00,,---,0.00,VWS V14.01,2013-02-21 10:16:00,
2013-02-21 04:18:00,26.6,19.4,30.23,NE,49,6.0,12.0,74,0.00,,---,0.00,VWS V14.01,2013-02-21 10:18:00,
2013-02-21 04:19:00,26.6,19.4,30.23,NE,44,4.0,12.0,74,0.00,,---,0.00,VWS V14.01,2013-02-21 10:19:00,
2013-02-21 04:21:00,26.6,19.4,30.23,NNE,33,2.0,12.0,74,0.00,,---,0.00,VWS V14.01,2013-02-21 10:21:00,
2013-02-21 04:23:00,26.7,19.9,30.22,NNE,25,4.0,12.0,75,0.00,,---,0.00,VWS V14.01,2013-02-21 10:23:00,
2013-02-21 04:24:00,26.7,19.9,30.22,North,7,5.0,12.0,75,0.00,,---,0.00,VWS V14.01,2013-02-21 10:24:00,
2013-02-21 04:26:00,26.6,19.4,30.22,North,354,9.0,14.0,74,0.00,,---,0.00,VWS V14.01,2013-02-21 10:26:00,
2013-02-21 04:29:00,26.6,19.4,30.22,North,357,4.0,9.0,74,0.00,,---,0.00,VWS V14.01,2013-02-21 10:29:00,
2013-02-21 04:30:00,26.6,19.4,30.22,North,5,7.0,14.0,74,0.00,,---,0.00,VWS V14.01,2013-02-21 10:30:00,
2013-02-21 04:31:00,26.6,19.4,30.23,NNW,341,3.0,9.0,74,0.00,,---,0.00,VWS V14.01,2013-02-21 10:31:00,
2013-02-21 04:34:00,26.6,19.4,30.23,NNE,17,6.0,9.0,74,0.00,,---,0.00,VWS V14.01,2013-02-21 10:34:00,
2013-02-21 04:36:00,26.6,19.4,30.23,NNE,16,6.0,9.0,74,0.00,,---,0.00,VWS V14.01,2013-02-21 10:36:00,
2013-02-21 04:39:00,26.6,19.8,30.23,NNE,27,5.0,9.0,75,0.00,,---,0.00,VWS V14.01,2013-02-21 10:39:00,
2013-02-21 04:41:00,26.7,19.9,30.22,NNE,13,5.0,9.0,75,0.00,,---,0.00,VWS V14.01,2013-02-21 10:41:00,
2013-02-21 04:44:00,26.7,19.5,30.22,North,354,3.0,10.0,74,0.00,,---,0.00,VWS V14.01,2013-02-21 10:44:00,
2013-02-21 04:46:00,26.7,19.5,30.22,NNW,346,7.0,10.0,74,0.00,,---,0.00,VWS V14.01,2013-02-21 10:46:00,
2013-02-21 04:47:00,26.7,19.5,30.22,NNE,13,5.0,10.0,74,0.00,,---,0.00,VWS V14.01,2013-02-21 10:47:00,
2013-02-21 04:49:00,26.7,19.5,30.21,NNE,21,6.0,10.0,74,0.00,,---,0.00,VWS V14.01,2013-02-21 10:49:00,
2013-02-21 04:50:00,26.7,19.5,30.21,North,359,7.0,10.0,74,0.00,,---,0.00,VWS V14.01,2013-02-21 10:50:00,
2013-02-21 04:51:00,26.7,19.5,30.21,NE,37,8.0,11.0,74,0.00,,---,0.00,VWS V14.01,2013-02-21 10:51:00,
2013-02-21 04:52:00,26.7,19.5,30.20,NNW,330,5.0,11.0,74,0.00,,---,0.00,VWS V14.01,2013-02-21 10:52:00,
2013-02-21 04:54:00,26.7,19.5,30.20,North,11,4.0,11.0,74,0.00,,---,0.00,VWS V14.01,2013-02-21 10:54:00,
2013-02-21 04:55:00,26.6,19.4,30.20,NNE,26,6.0,11.0,74,0.00,,---,0.00,VWS V14.01,2013-02-21 10:55:00,
2013-02-21 04:56:00,26.6,19.4,30.21,North,8,5.0,11.0,74,0.00,,---,0.00,VWS V14.01,2013-02-21 10:56:00,
2013-02-21 04:57:00,26.6,19.4,30.21,NNE,12,4.0,11.0,74,0.00,,---,0.00,VWS V14.01,2013-02-21 10:57:00,
2013-02-21 04:59:00,26.6,19.4,30.21,North,4,7.0,10.0,74,0.00,,---,0.00,VWS V14.01,2013-02-21 10:59:00,
2013-02-21 05:00:00,26.6,19.4,30.21,NNW,342,13.0,13.0,74,0.00,,---,0.00,VWS V14.01,2013-02-21 11:00:00,
2013-02-21 05:02:00,26.6,19.4,30.20,NE,38,5.0,15.0,74,0.00,,---,0.00,VWS V14.01,2013-02-21 11:02:00,
2013-02-21 05:05:00,26.6,19.8,30.20,North,8,4.0,15.0,75,0.00,,---,0.00,VWS V14.01,2013-02-21 11:05:00,
2013-02-21 05:07:00,26.6,19.8,30.20,NE,54,3.0,15.0,75,0.00,,---,0.00,VWS V14.01,2013-02-21 11:07:00,
2013-02-21 05:10:00,26.6,19.8,30.19,North,8,6.0,15.0,75,0.00,,---,0.00,VWS V14.01,2013-02-21 11:10:00,
2013-02-21 05:11:00,26.6,19.8,30.20,NNE,20,9.0,15.0,75,0.00,,---,0.00,VWS V14.01,2013-02-21 11:11:00,
2013-02-21 05:12:00,26.6,19.4,30.19,NE,44,8.0,15.0,74,0.00,,---,0.00,VWS V14.01,2013-02-21 11:12:00,
2013-02-21 05:15:00,26.6,19.8,30.19,NNE,16,7.0,15.0,75,0.00,,---,0.00,VWS V14.01,2013-02-21 11:15:00,
2013-02-21 05:16:00,26.6,19.8,30.20,NNE,20,3.0,15.0,75,0.00,,---,0.00,VWS V14.01,2013-02-21 11:16:00,
2013-02-21 05:17:00,26.6,19.8,30.20,NE,51,5.0,15.0,75,0.00,,---,0.00,VWS V14.01,2013-02-21 11:17:00,
2013-02-21 05:20:00,26.6,19.4,30.20,NE,39,4.0,15.0,74,0.00,,---,0.00,VWS V14.01,2013-02-21 11:20:00,
2013-02-21 05:21:00,26.6,19.4,30.20,NNE,23,5.0,15.0,74,0.00,,---,0.00,VWS V14.01,2013-02-21 11:21:00,
2013-02-21 05:22:00,26.6,19.4,30.20,NE,39,5.0,15.0,74,0.00,,---,0.00,VWS V14.01,2013-02-21 11:22:00,
2013-02-21 05:26:00,26.6,19.4,30.20,ENE,58,8.0,15.0,74,0.00,,---,0.00,VWS V14.01,2013-02-21 11:26:00,
2013-02-21 05:27:00,26.6,19.4,30.20,NE,52,9.0,15.0,74,0.00,,---,0.00,VWS V14.01,2013-02-21 11:27:00,
2013-02-21 05:30:00,26.6,19.4,30.20,ENE,66,10.0,15.0,74,0.00,,---,0.00,VWS V14.01,2013-02-21 11:30:00,
2013-02-21 05:31:00,26.6,19.8,30.19,NE,54,3.0,11.0,75,0.00,,---,0.00,VWS V14.01,2013-02-21 11:31:00,
2013-02-21 05:32:00,26.6,19.8,30.19,NNE,25,9.0,11.0,75,0.00,,---,0.00,VWS V14.01,2013-02-21 11:32:00,
2013-02-21 05:36:00,26.6,19.8,30.19,North,5,5.0,11.0,75,0.00,,---,0.00,VWS V14.01,2013-02-21 11:36:00,
2013-02-21 05:37:00,26.5,19.7,30.19,NNE,19,4.0,11.0,75,0.00,,---,0.00,VWS V14.01,2013-02-21 11:37:00,
2013-02-21 05:38:00,26.6,19.8,30.19,NNE,33,9.0,11.0,75,0.00,,---,0.00,VWS V14.01,2013-02-21 11:38:00,
2013-02-21 05:41:00,26.5,19.4,30.19,North,7,5.0,11.0,74,0.00,,---,0.00,VWS V14.01,2013-02-21 11:41:00,
2013-02-21 05:42:00,26.5,19.7,30.19,NNE,30,5.0,11.0,75,0.00,,---,0.00,VWS V14.01,2013-02-21 11:42:00,
2013-02-21 05:43:00,26.5,19.7,30.20,NNE,23,12.0,12.0,75,0.00,,---,0.00,VWS V14.01,2013-02-21 11:43:00,
2013-02-21 05:46:00,26.5,19.7,30.20,NNE,17,4.0,13.0,75,0.00,,---,0.00,VWS V14.01,2013-02-21 11:46:00,
2013-02-21 05:47:00,26.5,19.7,30.20,NNE,25,8.0,13.0,75,0.00,,---,0.00,VWS V14.01,2013-02-21 11:47:00,
2013-02-21 05:48:00,26.6,19.8,30.20,NNE,22,5.0,13.0,75,0.00,,---,0.00,VWS V14.01,2013-02-21 11:48:00,
2013-02-21 05:51:00,26.5,19.7,30.19,NNW,346,5.0,13.0,75,0.00,,---,0.00,VWS V14.01,2013-02-21 11:51:00,
2013-02-21 05:52:00,26.5,19.7,30.19,NNE,24,7.0,13.0,75,0.00,,---,0.00,VWS V14.01,2013-02-21 11:52:00,
2013-02-21 05:53:00,26.5,19.7,30.19,North,355,4.0,13.0,75,0.00,,---,0.00,VWS V14.01,2013-02-21 11:53:00,
2013-02-21 05:54:00,26.5,19.7,30.19,North,351,3.0,13.0,75,0.00,,---,0.00,VWS V14.01,2013-02-21 11:54:00,
2013-02-21 05:57:00,26.5,19.7,30.19,NE,35,8.0,13.0,75,0.00,,---,0.00,VWS V14.01,2013-02-21 11:57:00,
2013-02-21 05:58:00,26.5,19.7,30.19,NNE,33,5.0,7.0,75,0.00,,---,0.00,VWS V14.01,2013-02-21 11:58:00,
2013-02-21 05:59:00,26.6,19.8,30.19,NE,41,2.0,7.0,75,0.00,,---,0.00,VWS V14.01,2013-02-21 11:59:00,
2013-02-21 06:00:00,26.6,19.8,30.19,North,351,6.0,13.0,75,0.00,,---,0.00,VWS V14.01,2013-02-21 12:00:00,
2013-02-21 06:02:00,26.6,19.8,30.19,NE,37,9.0,10.0,75,0.00,,---,0.00,VWS V14.01,2013-02-21 12:02:00,
2013-02-21 06:03:00,26.6,19.4,30.19,NE,42,3.0,10.0,74,0.00,,---,0.00,VWS V14.01,2013-02-21 12:03:00,
2013-02-21 06:05:00,26.6,19.8,30.19,ENE,71,5.0,10.0,75,0.00,,---,0.00,VWS V14.01,2013-02-21 12:05:00,
2013-02-21 06:07:00,26.7,19.9,30.19,NNE,22,2.0,10.0,75,0.00,,---,0.00,VWS V14.01,2013-02-21 12:07:00,
2013-02-21 06:08:00,26.6,19.4,30.19,NNE,33,8.0,10.0,74,0.00,,---,0.00,VWS V14.01,2013-02-21 12:08:00,
2013-02-21 06:09:00,26.7,19.5,30.19,NE,55,5.0,10.0,74,0.00,,---,0.00,VWS V14.01,2013-02-21 12:09:00,
2013-02-21 06:10:00,26.7,19.5,30.19,North,9,5.0,10.0,74,0.00,,---,0.00,VWS V14.01,2013-02-21 12:10:00,
2013-02-21 06:12:00,26.7,19.5,30.19,North,8,5.0,10.0,74,0.00,,---,0.00,VWS V14.01,2013-02-21 12:12:00,
2013-02-21 06:13:00,26.7,19.5,30.19,NE,45,4.0,10.0,74,0.00,,---,0.00,VWS V14.01,2013-02-21 12:13:00,
2013-02-21 06:14:00,26.7,19.5,30.18,NNE,29,3.0,10.0,74,0.00,,---,0.00,VWS V14.01,2013-02-21 12:14:00,
2013-02-21 06:15:00,26.7,19.5,30.18,NNE,19,6.0,10.0,74,0.00,,---,0.00,VWS V14.01,2013-02-21 12:15:00,
2013-02-21 06:17:00,26.7,19.5,30.17,NE,39,4.0,10.0,74,0.00,,---,0.00,VWS V14.01,2013-02-21 12:17:00,
2013-02-21 06:18:00,26.7,19.5,30.17,NNE,23,5.0,10.0,74,0.00,,---,0.00,VWS V14.01,2013-02-21 12:18:00,
2013-02-21 06:19:00,26.7,19.5,30.17,North,3,4.0,10.0,74,0.00,,---,0.00,VWS V14.01,2013-02-21 12:19:00,
2013-02-21 06:20:00,26.7,19.9,30.17,NW,325,6.0,10.0,75,0.00,,---,0.00,VWS V14.01,2013-02-21 12:20:00,
2013-02-21 06:22:00,26.7,19.5,30.17,NE,46,2.0,10.0,74,0.00,,---,0.00,VWS V14.01,2013-02-21 12:22:00,
2013-02-21 06:23:00,26.7,19.5,30.17,North,354,7.0,10.0,74,0.00,,---,0.00,VWS V14.01,2013-02-21 12:23:00,
2013-02-21 06:24:00,26.7,19.5,30.17,NE,39,10.0,10.0,74,0.00,,---,0.00,VWS V14.01,2013-02-21 12:24:00,
2013-02-21 06:25:00,26.7,19.5,30.17,NNE,19,3.0,12.0,74,0.00,,---,0.00,VWS V14.01,2013-02-21 12:25:00,
2013-02-21 06:27:00,26.7,19.5,30.17,North,2,2.0,12.0,74,0.00,,---,0.00,VWS V14.01,2013-02-21 12:27:00,
2013-02-21 06:28:00,26.7,19.5,30.17,NE,54,6.0,7.0,74,0.00,,---,0.00,VWS V14.01,2013-02-21 12:28:00,
2013-02-21 06:29:00,26.7,19.5,30.17,NNW,343,5.0,7.0,74,0.00,,---,0.00,VWS V14.01,2013-02-21 12:29:00,
2013-02-21 06:30:00,26.7,19.5,30.17,NNE,33,4.0,7.0,74,0.00,,---,0.00,VWS V14.01,2013-02-21 12:30:00,
2013-02-21 06:32:00,26.7,19.5,30.17,NNE,12,6.0,9.0,74,0.00,,---,0.00,VWS V14.01,2013-02-21 12:32:00,
2013-02-21 06:34:00,26.7,19.5,30.17,NNE,23,4.0,9.0,74,0.00,,---,0.00,VWS V14.01,2013-02-21 12:34:00,
2013-02-21 06:35:00,26.7,19.5,30.17,NNE,22,8.0,9.0,74,0.00,,---,0.00,VWS V14.01,2013-02-21 12:35:00,
2013-02-21 06:37:00,26.7,19.5,30.17,NNE,20,3.0,9.0,74,0.00,,---,0.00,VWS V14.01,2013-02-21 12:37:00,
2013-02-21 06:39:00,26.7,19.5,30.17,NNE,21,6.0,9.0,74,0.00,,---,0.00,VWS V14.01,2013-02-21 12:39:00,
2013-02-21 06:40:00,26.7,19.5,30.17,NE,35,9.0,9.0,74,0.00,,---,0.00,VWS V14.01,2013-02-21 12:40:00,
2013-02-21 06:43:00,26.7,19.5,30.17,NNE,28,4.0,14.0,74,0.00,,---,0.00,VWS V14.01,2013-02-21 12:43:00,
2013-02-21 06:44:00,26.7,19.5,30.17,North,349,7.0,14.0,74,0.00,,---,0.00,VWS V14.01,2013-02-21 12:44:00,
2013-02-21 06:45:00,26.7,19.5,30.17,North,351,6.0,14.0,74,0.00,,---,0.00,VWS V14.01,2013-02-21 12:45:00,
2013-02-21 06:48:00,26.7,19.5,30.17,NNE,28,4.0,14.0,74,0.00,,---,0.00,VWS V14.01,2013-02-21 12:48:00,
2013-02-21 06:49:00,26.7,19.5,30.17,NNE,29,3.0,14.0,74,0.00,,---,0.00,VWS V14.01,2013-02-21 12:49:00,
2013-02-21 06:50:00,26.8,19.6,30.18,ENE,62,5.0,14.0,74,0.00,,---,0.00,VWS V14.01,2013-02-21 12:50:00,
2013-02-21 06:53:00,26.8,19.6,30.18,NE,54,9.0,14.0,74,0.00,,---,0.00,VWS V14.01,2013-02-21 12:53:00,
2013-02-21 06:54:00,26.8,19.6,30.18,NE,48,3.0,14.0,74,0.00,,---,0.00,VWS V14.01,2013-02-21 12:54:00,
2013-02-21 06:55:00,26.8,19.6,30.18,ENE,63,3.0,14.0,74,0.00,,---,0.00,VWS V14.01,2013-02-21 12:55:00,
2013-02-21 06:58:00,26.8,19.6,30.18,NE,46,3.0,4.0,74,0.00,,---,0.00,VWS V14.01,2013-02-21 12:58:00,
2013-02-21 07:00:00,26.8,19.6,30.18,NE,55,3.0,6.0,74,0.00,,---,0.00,VWS V14.01,2013-02-21 13:00:00,
2013-02-21 07:01:00,26.8,19.6,30.18,NE,44,5.0,8.0,74,0.00,,---,0.00,VWS V14.01,2013-02-21 13:01:00,
2013-02-21 07:04:00,26.8,19.6,30.18,NE,45,5.0,9.0,74,0.00,,---,0.00,VWS V14.01,2013-02-21 13:04:00,
2013-02-21 07:05:00,26.8,19.6,30.18,NE,56,5.0,9.0,74,0.00,,---,0.00,VWS V14.01,2013-02-21 13:05:00,
2013-02-21 07:06:00,26.8,19.6,30.18,NNE,26,5.0,10.0,74,0.00,,---,0.00,VWS V14.01,2013-02-21 13:06:00,
2013-02-21 07:09:00,26.8,19.6,30.18,NNE,25,5.0,10.0,74,0.00,,---,0.00,VWS V14.01,2013-02-21 13:09:00,
2013-02-21 07:10:00,26.9,19.7,30.18,NE,52,8.0,10.0,74,0.00,,---,0.00,VWS V14.01,2013-02-21 13:10:00,
2013-02-21 07:11:00,26.9,19.7,30.18,NNE,25,7.0,10.0,74,0.00,,---,0.00,VWS V14.01,2013-02-21 13:11:00,
2013-02-21 07:12:00,26.9,19.7,30.18,NE,52,7.0,10.0,74,0.00,,---,0.00,VWS V14.01,2013-02-21 13:12:00,
2013-02-21 07:14:00,26.9,19.7,30.18,NE,42,7.0,10.0,74,0.00,,---,0.00,VWS V14.01,2013-02-21 13:14:00,
2013-02-21 07:15:00,26.9,19.7,30.19,NE,55,6.0,10.0,74,0.00,,---,0.00,VWS V14.01,2013-02-21 13:15:00,
2013-02-21 07:17:00,26.9,19.7,30.19,NNE,31,3.0,10.0,74,0.00,,---,0.00,VWS V14.01,2013-02-21 13:17:00,
2013-02-21 07:19:00,27.0,19.8,30.19,ENE,60,7.0,10.0,74,0.00,,---,0.00,VWS V14.01,2013-02-21 13:19:00,
2013-02-21 07:20:00,27.0,20.1,30.19,NE,53,7.0,10.0,75,0.00,,---,0.00,VWS V14.01,2013-02-21 13:20:00,
2013-02-21 07:22:00,27.0,19.8,30.19,ENE,57,3.0,10.0,74,0.00,,---,0.00,VWS V14.01,2013-02-21 13:22:00,
2013-02-21 07:24:00,27.1,20.2,30.19,NE,53,6.0,10.0,75,0.00,,---,0.00,VWS V14.01,2013-02-21 13:24:00,
2013-02-21 07:25:00,27.1,19.9,30.19,NNE,29,5.0,10.0,74,0.00,,---,0.00,VWS V14.01,2013-02-21 13:25:00,
2013-02-21 07:27:00,27.1,19.9,30.18,NE,34,9.0,10.0,74,0.00,,---,0.00,VWS V14.01,2013-02-21 13:27:00,
2013-02-21 07:29:00,27.1,19.6,30.18,NNE,26,7.0,10.0,73,0.00,,---,0.00,VWS V14.01,2013-02-21 13:29:00,
2013-02-21 07:30:00,27.1,19.6,30.18,NNE,29,5.0,10.0,73,0.00,,---,0.00,VWS V14.01,2013-02-21 13:30:00,
2013-02-21 07:32:00,27.1,19.6,30.18,NE,48,4.0,11.0,73,0.00,,---,0.00,VWS V14.01,2013-02-21 13:32:00,
2013-02-21 07:34:00,27.2,20.0,30.18,NNE,20,5.0,11.0,74,0.00,,---,0.00,VWS V14.01,2013-02-21 13:34:00,
2013-02-21 07:36:00,27.3,20.1,30.18,North,355,7.0,11.0,74,0.00,,---,0.00,VWS V14.01,2013-02-21 13:36:00,
2013-02-21 07:37:00,27.3,20.1,30.18,NE,43,5.0,11.0,74,0.00,,---,0.00,VWS V14.01,2013-02-21 13:37:00,
2013-02-21 07:39:00,27.4,20.2,30.17,North,349,6.0,11.0,74,0.00,,---,0.00,VWS V14.01,2013-02-21 13:39:00,
2013-02-21 07:41:00,27.4,19.9,30.17,North,356,6.0,11.0,73,0.00,,---,0.00,VWS V14.01,2013-02-21 13:41:00,
2013-02-21 07:42:00,27.4,19.9,30.17,North,7,2.0,11.0,73,0.00,,---,0.00,VWS V14.01,2013-02-21 13:42:00,
2013-02-21 07:45:00,27.4,19.9,30.17,NNE,29,9.0,14.0,73,0.00,,---,0.00,VWS V14.01,2013-02-21 13:45:00,
2013-02-21 07:46:00,27.4,19.6,30.17,NE,38,7.0,14.0,72,0.00,,---,0.00,VWS V14.01,2013-02-21 13:46:00,
2013-02-21 07:47:00,27.5,20.0,30.16,NNE,26,3.0,14.0,73,0.00,,---,0.00,VWS V14.01,2013-02-21 13:47:00,
2013-02-21 07:50:00,27.6,20.1,30.16,NNE,23,6.0,14.0,73,0.00,,---,0.00,VWS V14.01,2013-02-21 13:50:00,
2013-02-21 07:51:00,27.6,20.1,30.16,NE,35,9.0,14.0,73,0.00,,---,0.00,VWS V14.01,2013-02-21 13:51:00,
2013-02-21 07:52:00,27.7,20.2,30.16,North,4,13.0,14.0,73,0.00,,---,0.00,VWS V14.01,2013-02-21 13:52:00,
2013-02-21 07:53:00,27.6,19.8,30.16,NNE,12,7.0,14.0,72,0.00,,---,0.00,VWS V14.01,2013-02-21 13:53:00,
2013-02-21 07:55:00,27.7,19.9,30.16,North,351,6.0,14.0,72,0.00,,---,0.00,VWS V14.01,2013-02-21 13:55:00,
2013-02-21 07:56:00,27.7,19.9,30.16,NE,37,11.0,14.0,72,0.00,,---,0.00,VWS V14.01,2013-02-21 13:56:00,
2013-02-21 07:57:00,27.8,20.0,30.16,North,8,5.0,14.0,72,0.00,,---,0.00,VWS V14.01,2013-02-21 13:57:00,
2013-02-21 07:58:00,27.8,20.0,30.16,NNW,348,8.0,14.0,72,0.00,,---,0.00,VWS V14.01,2013-02-21 13:58:00,
2013-02-21 08:00:00,27.8,20.0,30.16,NNE,33,7.0,14.0,72,0.00,,---,0.00,VWS V14.01,2013-02-21 14:00:00,
2013-02-21 08:01:00,27.8,20.0,30.16,NNE,23,3.0,14.0,72,0.00,,---,0.00,VWS V14.01,2013-02-21 14:01:00,
2013-02-21 08:03:00,27.9,20.1,30.16,NNE,27,12.0,14.0,72,0.00,,---,0.00,VWS V14.01,2013-02-21 14:03:00,
2013-02-21 08:05:00,27.9,19.7,30.15,NNE,17,4.0,14.0,71,0.00,,---,0.00,VWS V14.01,2013-02-21 14:05:00,
2013-02-21 08:06:00,28.0,20.2,30.16,NNE,17,4.0,14.0,72,0.00,,---,0.00,VWS V14.01,2013-02-21 14:06:00,
2013-02-21 08:08:00,28.0,20.2,30.16,NNE,15,9.0,14.0,72,0.00,,---,0.00,VWS V14.01,2013-02-21 14:08:00,
2013-02-21 08:09:00,28.0,20.2,30.16,North,2,5.0,14.0,72,0.00,,---,0.00,VWS V14.01,2013-02-21 14:09:00,
2013-02-21 08:10:00,28.0,19.8,30.16,NE,44,10.0,14.0,71,0.00,,---,0.00,VWS V14.01,2013-02-21 14:10:00,
2013-02-21 08:11:00,28.0,19.8,30.16,NNE,30,8.0,14.0,71,0.00,,---,0.00,VWS V14.01,2013-02-21 14:11:00,
2013-02-21 08:13:00,28.1,19.9,30.16,NNE,29,10.0,15.0,71,0.00,,---,0.00,VWS V14.01,2013-02-21 14:13:00,
2013-02-21 08:14:00,28.1,19.9,30.16,NNE,20,9.0,15.0,71,0.00,,---,0.00,VWS V14.01,2013-02-21 14:14:00,
2013-02-21 08:15:00,28.1,19.9,30.16,ENE,57,6.0,15.0,71,0.00,,---,0.00,VWS V14.01,2013-02-21 14:15:00,
2013-02-21 08:16:00,28.1,19.9,30.17,ENE,58,6.0,15.0,71,0.00,,---,0.00,VWS V14.01,2013-02-21 14:16:00,
2013-02-21 08:19:00,28.2,20.0,30.16,NNE,21,4.0,15.0,71,0.00,,---,0.00,VWS V14.01,2013-02-21 14:19:00,
2013-02-21 08:21:00,28.3,20.1,30.16,ENE,70,6.0,15.0,71,0.00,,---,0.00,VWS V14.01,2013-02-21 14:21:00,
2013-02-21 08:22:00,28.4,20.2,30.16,NE,40,5.0,15.0,71,0.00,,---,0.00,VWS V14.01,2013-02-21 14:22:00,
2013-02-21 08:24:00,28.4,20.2,30.17,NE,37,11.0,15.0,71,0.00,,---,0.00,VWS V14.01,2013-02-21 14:24:00,
2013-02-21 08:26:00,28.4,19.9,30.17,NNE,21,8.0,15.0,70,0.00,,---,0.00,VWS V14.01,2013-02-21 14:26:00,
2013-02-21 08:27:00,28.4,19.9,30.17,North,2,5.0,15.0,70,0.00,,---,0.00,VWS V14.01,2013-02-21 14:27:00,
2013-02-21 08:29:00,28.5,20.0,30.16,NE,36,5.0,7.0,70,0.00,,---,0.00,VWS V14.01,2013-02-21 14:29:00,
2013-02-21 08:30:00,28.4,19.9,30.17,NNE,29,2.0,15.0,70,0.00,,---,0.00,VWS V14.01,2013-02-21 14:30:00,
2013-02-21 08:31:00,28.5,20.3,30.16,NE,43,9.0,13.0,71,0.00,,---,0.00,VWS V14.01,2013-02-21 14:31:00,
2013-02-21 08:32:00,28.5,20.0,30.17,NE,38,11.0,13.0,70,0.00,,---,0.00,VWS V14.01,2013-02-21 14:32:00,
2013-02-21 08:34:00,28.5,20.0,30.16,NNE,26,7.0,13.0,70,0.00,,---,0.00,VWS V14.01,2013-02-21 14:34:00,
2013-02-21 08:36:00,28.5,20.0,30.16,ENE,61,6.0,13.0,70,0.00,,---,0.00,VWS V14.01,2013-02-21 14:36:00,
2013-02-21 08:37:00,28.6,20.1,30.16,NNE,18,3.0,13.0,70,0.00,,---,0.00,VWS V14.01,2013-02-21 14:37:00,
2013-02-21 08:39:00,28.6,20.1,30.16,NNE,25,3.0,13.0,70,0.00,,---,0.00,VWS V14.01,2013-02-21 14:39:00,
2013-02-21 08:41:00,28.7,20.2,30.16,North,352,5.0,13.0,70,0.00,,---,0.00,VWS V14.01,2013-02-21 14:41:00,
2013-02-21 08:42:00,28.7,20.2,30.17,NNE,23,3.0,13.0,70,0.00,,---,0.00,VWS V14.01,2013-02-21 14:42:00,
2013-02-21 08:44:00,28.7,20.2,30.17,North,350,9.0,13.0,70,0.00,,---,0.00,VWS V14.01,2013-02-21 14:44:00,
2013-02-21 08:46:00,28.7,19.8,30.16,NE,38,7.0,13.0,69,0.00,,---,0.00,VWS V14.01,2013-02-21 14:46:00,
2013-02-21 08:47:00,28.7,19.8,30.16,NNW,343,4.0,13.0,69,0.00,,---,0.00,VWS V14.01,2013-02-21 14:47:00,
2013-02-21 08:49:00,28.7,19.8,30.17,NE,40,10.0,13.0,69,0.00,,---,0.00,VWS V14.01,2013-02-21 14:49:00,
2013-02-21 08:51:00,28.7,19.8,30.17,NE,50,7.0,13.0,69,0.00,,---,0.00,VWS V14.01,2013-02-21 14:51:00,
2013-02-21 08:52:00,28.7,19.8,30.17,NE,45,7.0,13.0,69,0.00,,---,0.00,VWS V14.01,2013-02-21 14:52:00,
2013-02-21 08:54:00,28.7,19.8,30.17,NE,50,8.0,13.0,69,0.00,,---,0.00,VWS V14.01,2013-02-21 14:54:00,
2013-02-21 08:55:00,28.7,19.8,30.17,NNE,23,10.0,13.0,69,0.00,,---,0.00,VWS V14.01,2013-02-21 14:55:00,
2013-02-21 08:56:00,28.7,19.5,30.17,North,349,5.0,13.0,68,0.00,,---,0.00,VWS V14.01,2013-02-21 14:56:00,
2013-02-21 08:57:00,28.7,19.5,30.17,NE,44,8.0,13.0,68,0.00,,---,0.00,VWS V14.01,2013-02-21 14:57:00,
2013-02-21 08:59:00,28.7,19.8,30.16,NE,45,9.0,11.0,69,0.00,,---,0.00,VWS V14.01,2013-02-21 14:59:00,
2013-02-21 09:00:00,28.7,19.8,30.16,NNE,31,10.0,11.0,69,0.00,,---,0.00,VWS V14.01,2013-02-21 15:00:00,
2013-02-21 09:01:00,28.7,19.8,30.15,NNE,27,5.0,11.0,69,0.00,,---,0.00,VWS V14.01,2013-02-21 15:01:00,
2013-02-21 09:03:00,28.7,19.8,30.13,North,4,14.0,14.0,69,0.00,,---,0.00,VWS V14.01,2013-02-21 15:03:00,
2013-02-21 09:05:00,28.7,19.8,30.12,NNE,19,9.0,14.0,69,0.00,,---,0.00,VWS V14.01,2013-02-21 15:05:00,
2013-02-21 09:06:00,28.7,19.8,30.13,North,6,6.0,14.0,69,0.00,,---,0.00,VWS V14.01,2013-02-21 15:06:00,
2013-02-21 09:08:00,28.7,20.2,30.12,North,360,7.0,14.0,70,0.00,,---,0.00,VWS V14.01,2013-02-21 15:08:00,
2013-02-21 09:10:00,28.7,20.2,30.12,NNE,16,6.0,14.0,70,0.00,,---,0.00,VWS V14.01,2013-02-21 15:10:00,
2013-02-21 09:11:00,28.7,20.5,30.13,North,349,5.0,14.0,71,0.00,,---,0.00,VWS V14.01,2013-02-21 15:11:00,
2013-02-21 09:12:00,28.7,20.5,30.12,NNW,347,13.0,14.0,71,0.00,,---,0.00,VWS V14.01,2013-02-21 15:12:00,
2013-02-21 09:13:00,28.6,20.4,30.12,NNE,23,7.0,14.0,71,0.00,,---,0.00,VWS V14.01,2013-02-21 15:13:00,
2013-02-21 09:15:00,28.6,20.4,30.12,NNE,21,7.0,14.0,71,0.00,,---,0.00,VWS V14.01,2013-02-21 15:15:00,
2013-02-21 09:16:00,28.5,20.6,30.12,NE,34,8.0,14.0,72,0.00,,---,0.00,VWS V14.01,2013-02-21 15:16:00,
2013-02-21 09:17:00,28.5,20.6,30.12,NE,38,5.0,14.0,72,0.00,,---,0.00,VWS V14.01,2013-02-21 15:17:00,
2013-02-21 09:18:00,28.5,20.6,30.12,NNW,347,7.0,14.0,72,0.00,,---,0.00,VWS V14.01,2013-02-21 15:18:00,
2013-02-21 09:20:00,28.5,20.6,30.12,NNW,347,7.0,14.0,72,0.00,,---,0.00,VWS V14.01,2013-02-21 15:20:00,
2013-02-21 09:21:00,28.5,20.6,30.12,NNW,340,6.0,14.0,72,0.00,,---,0.00,VWS V14.01,2013-02-21 15:21:00,
2013-02-21 09:22:00,28.4,20.5,30.13,North,9,3.0,14.0,72,0.00,,---,0.00,VWS V14.01,2013-02-21 15:22:00,
2013-02-21 09:23:00,28.4,20.2,30.14,North,11,6.0,14.0,71,0.00,,---,0.00,VWS V14.01,2013-02-21 15:23:00,
2013-02-21 09:25:00,28.5,20.6,30.14,NE,50,7.0,14.0,72,0.00,,---,0.00,VWS V14.01,2013-02-21 15:25:00,
2013-02-21 09:26:00,28.5,20.3,30.13,NNW,343,8.0,14.0,71,0.00,,---,0.00,VWS V14.01,2013-02-21 15:26:00,
2013-02-21 09:27:00,28.5,20.3,30.14,NNW,335,6.0,14.0,71,0.00,,---,0.00,VWS V14.01,2013-02-21 15:27:00,
2013-02-21 09:29:00,28.4,20.5,30.15,North,351,2.0,5.0,72,0.00,,---,0.00,VWS V14.01,2013-02-21 15:29:00,
2013-02-21 09:30:00,28.5,20.6,30.16,NNW,335,4.0,5.0,72,0.00,,---,0.00,VWS V14.01,2013-02-21 15:30:00,
2013-02-21 09:31:00,28.5,20.6,30.19,NNW,345,4.0,5.0,72,0.00,,---,0.00,VWS V14.01,2013-02-21 15:31:00,
2013-02-21 09:32:00,28.5,20.6,30.19,North,4,1.0,5.0,72,0.00,,---,0.00,VWS V14.01,2013-02-21 15:32:00,
2013-02-21 09:34:00,28.6,20.4,30.21,North,4,0.0,5.0,71,0.00,,---,0.00,VWS V14.01,2013-02-21 15:34:00,
2013-02-21 09:35:00,28.6,20.4,30.22,North,4,0.0,5.0,71,0.00,,---,0.00,VWS V14.01,2013-02-21 15:35:00,
2013-02-21 09:36:00,28.6,20.4,30.22,North,4,0.0,5.0,71,0.00,,---,0.00,VWS V14.01,2013-02-21 15:36:00,
2013-02-21 09:37:00,28.7,20.5,30.21,NNW,341,1.0,5.0,71,0.00,,---,0.00,VWS V14.01,2013-02-21 15:37:00,
2013-02-21 09:39:00,28.7,20.2,30.20,West,281,1.0,5.0,70,0.00,,---,0.00,VWS V14.01,2013-02-21 15:39:00,
2013-02-21 09:40:00,28.8,20.6,30.19,NNE,30,5.0,5.0,71,0.00,,---,0.00,VWS V14.01,2013-02-21 15:40:00,
2013-02-21 09:42:00,28.8,20.9,30.17,NE,48,8.0,8.0,72,0.00,,---,0.00,VWS V14.01,2013-02-21 15:42:00,
2013-02-21 09:44:00,28.7,20.8,30.14,NE,38,8.0,12.0,72,0.00,,---,0.00,VWS V14.01,2013-02-21 15:44:00,
2013-02-21 09:45:00,28.7,21.1,30.14,ENE,62,7.0,12.0,73,0.00,,---,0.00,VWS V14.01,2013-02-21 15:45:00,
2013-02-21 09:47:00,28.7,21.5,30.16,NNE,25,2.0,12.0,74,0.00,,---,0.00,VWS V14.01,2013-02-21 15:47:00,
2013-02-21 09:49:00,28.6,21.4,30.17,NW,320,4.0,12.0,74,0.00,,---,0.00,VWS V14.01,2013-02-21 15:49:00,
2013-02-21 09:50:00,28.6,21.7,30.17,WNW,299,4.0,12.0,75,0.00,,---,0.00,VWS V14.01,2013-02-21 15:50:00,
2013-02-21 09:52:00,28.6,22.0,30.16,NW,317,8.0,12.0,76,0.00,,---,0.00,VWS V14.01,2013-02-21 15:52:00,
2013-02-21 09:53:00,28.6,22.3,30.16,NNW,330,7.0,12.0,77,0.00,,---,0.00,VWS V14.01,2013-02-21 15:53:00,
2013-02-21 09:54:00,28.6,22.3,30.15,NNW,343,6.0,12.0,77,0.00,,---,0.00,VWS V14.01,2013-02-21 15:54:00,
2013-02-21 09:55:00,28.5,22.5,30.15,North,8,5.0,12.0,78,0.00,,---,0.00,VWS V14.01,2013-02-21 15:55:00,
2013-02-21 09:57:00,28.5,22.8,30.14,NNE,33,8.0,12.0,79,0.00,,---,0.00,VWS V14.01,2013-02-21 15:57:00,
2013-02-21 09:58:00,28.5,22.8,30.13,North,4,7.0,8.0,79,0.00,,---,0.00,VWS V14.01,2013-02-21 15:58:00,
2013-02-21 09:59:00,28.5,22.5,30.12,North,1,9.0,9.0,78,0.00,,---,0.00,VWS V14.01,2013-02-21 15:59:00,
2013-02-21 10:00:00,28.5,22.5,30.12,NNW,340,7.0,9.0,78,0.00,,---,0.00,VWS V14.01,2013-02-21 16:00:00,
2013-02-21 10:02:00,28.4,22.4,30.12,North,349,7.0,12.0,78,0.00,,---,0.00,VWS V14.01,2013-02-21 16:02:00,
2013-02-21 10:03:00,28.4,22.4,30.12,NW,317,5.0,12.0,78,0.00,,---,0.00,VWS V14.01,2013-02-21 16:03:00,
2013-02-21 10:05:00,28.3,22.3,30.12,North,4,4.0,12.0,78,0.00,,---,0.00,VWS V14.01,2013-02-21 16:05:00,
2013-02-21 10:07:00,28.4,23.0,30.11,NNE,19,7.0,13.0,80,0.00,,---,0.00,VWS V14.01,2013-02-21 16:07:00,
2013-02-21 10:08:00,28.4,23.0,30.11,NW,320,4.0,13.0,80,0.00,,---,0.00,VWS V14.01,2013-02-21 16:08:00,
2013-02-21 10:10:00,28.4,23.0,30.11,NE,45,4.0,13.0,80,0.00,,---,0.00,VWS V14.01,2013-02-21 16:10:00,
2013-02-21 10:12:00,28.3,22.9,30.12,NE,35,5.0,13.0,80,0.00,,---,0.00,VWS V14.01,2013-02-21 16:12:00,
2013-02-21 10:13:00,28.4,23.0,30.12,NE,45,3.0,13.0,80,0.00,,---,0.00,VWS V14.01,2013-02-21 16:13:00,
2013-02-21 10:15:00,28.4,23.3,30.12,NE,53,5.0,13.0,81,0.00,,---,0.00,VWS V14.01,2013-02-21 16:15:00,
2013-02-21 10:18:00,28.4,23.3,30.12,North,6,4.0,13.0,81,0.00,,---,0.00,VWS V14.01,2013-02-21 16:18:00,
2013-02-21 10:20:00,28.4,23.3,30.12,NNW,345,6.0,13.0,81,0.00,,---,0.00,VWS V14.01,2013-02-21 16:20:00,
2013-02-21 10:21:00,28.4,23.3,30.12,NNE,22,10.0,13.0,81,0.00,,---,0.00,VWS V14.01,2013-02-21 16:21:00,
2013-02-21 10:23:00,28.3,23.2,30.11,North,6,7.0,13.0,81,0.00,,---,0.00,VWS V14.01,2013-02-21 16:23:00,
2013-02-21 10:25:00,28.3,23.2,30.10,North,349,7.0,13.0,81,0.00,,---,0.00,VWS V14.01,2013-02-21 16:25:00,
2013-02-21 10:26:00,28.3,23.2,30.09,NE,35,8.0,13.0,81,0.00,,---,0.00,VWS V14.01,2013-02-21 16:26:00,
2013-02-21 10:28:00,28.2,23.1,30.09,NNE,32,9.0,11.0,81,0.00,,---,0.00,VWS V14.01,2013-02-21 16:28:00,
2013-02-21 10:30:00,28.2,23.1,30.09,North,1,9.0,13.0,81,0.00,,---,0.00,VWS V14.01,2013-02-21 16:30:00,
2013-02-21 10:31:00,28.2,23.4,30.08,North,351,5.0,13.0,82,0.00,,---,0.00,VWS V14.01,2013-02-21 16:31:00,
2013-02-21 10:33:00,28.3,23.5,30.09,NNE,29,10.0,13.0,82,0.00,,---,0.00,VWS V14.01,2013-02-21 16:33:00,
2013-02-21 10:34:00,28.3,23.5,30.09,NE,41,7.0,13.0,82,0.00,,---,0.00,VWS V14.01,2013-02-21 16:34:00,
2013-02-21 10:36:00,28.3,23.5,30.08,North,10,4.0,13.0,82,0.00,,---,0.00,VWS V14.01,2013-02-21 16:36:00,
2013-02-21 10:39:00,28.3,23.5,30.08,NNE,31,8.0,13.0,82,0.00,,---,0.00,VWS V14.01,2013-02-21 16:39:00,
2013-02-21 10:40:00,28.3,23.5,30.08,NE,41,7.0,13.0,82,0.00,,---,0.00,VWS V14.01,2013-02-21 16:40:00,
2013-02-21 10:41:00,28.3,23.5,30.08,ENE,78,7.0,13.0,82,0.00,,---,0.00,VWS V14.01,2013-02-21 16:41:00,
2013-02-21 10:44:00,28.3,23.5,30.08,NE,35,9.0,13.0,82,0.00,,---,0.00,VWS V14.01,2013-02-21 16:44:00,
2013-02-21 10:45:00,28.3,23.8,30.08,North,4,8.0,13.0,83,0.00,,---,0.00,VWS V14.01,2013-02-21 16:45:00,
2013-02-21 10:46:00,28.3,23.5,30.08,NNE,22,10.0,13.0,82,0.00,,---,0.00,VWS V14.01,2013-02-21 16:46:00,
2013-02-21 10:49:00,28.3,23.8,30.09,North,349,4.0,13.0,83,0.00,,---,0.00,VWS V14.01,2013-02-21 16:49:00,
2013-02-21 10:50:00,28.3,23.8,30.09,NE,37,9.0,13.0,83,0.00,,---,0.00,VWS V14.01,2013-02-21 16:50:00,
2013-02-21 10:51:00,28.3,23.8,30.09,NNE,32,7.0,13.0,83,0.00,,---,0.00,VWS V14.01,2013-02-21 16:51:00,
2013-02-21 10:54:00,28.4,23.9,30.08,NNE,20,10.0,14.0,83,0.00,,---,0.00,VWS V14.01,2013-02-21 16:54:00,
2013-02-21 10:56:00,28.4,23.6,30.08,NNE,26,7.0,14.0,82,0.00,,---,0.00,VWS V14.01,2013-02-21 16:56:00,
2013-02-21 11:00:00,28.4,23.6,30.06,North,11,8.0,14.0,82,0.00,,---,0.00,VWS V14.01,2013-02-21 17:00:00,
2013-02-21 11:01:00,28.4,23.6,30.05,NE,47,9.0,14.0,82,0.00,,---,0.00,VWS V14.01,2013-02-21 17:01:00,
2013-02-21 11:02:00,28.4,23.6,30.05,NNE,23,7.0,16.0,82,0.00,,---,0.00,VWS V14.01,2013-02-21 17:02:00,
2013-02-21 11:03:00,28.4,23.6,30.04,NNE,20,9.0,16.0,82,0.00,,---,0.00,VWS V14.01,2013-02-21 17:03:00,
2013-02-21 11:05:00,28.5,23.7,30.03,North,351,8.0,16.0,82,0.00,,---,0.00,VWS V14.01,2013-02-21 17:05:00,
2013-02-21 11:06:00,28.5,23.7,30.03,NE,41,8.0,16.0,82,0.00,,---,0.00,VWS V14.01,2013-02-21 17:06:00,
2013-02-21 11:07:00,28.6,23.8,30.03,ENE,57,7.0,16.0,82,0.00,,---,0.00,VWS V14.01,2013-02-21 17:07:00,
2013-02-21 11:08:00,28.6,23.8,30.03,NNE,12,8.0,16.0,82,0.00,,---,0.00,VWS V14.01,2013-02-21 17:08:00,
2013-02-21 11:10:00,28.6,23.8,30.03,ENE,62,8.0,16.0,82,0.00,,---,0.00,VWS V14.01,2013-02-21 17:10:00,
2013-02-21 11:11:00,28.6,23.8,30.03,NE,41,11.0,16.0,82,0.00,,---,0.00,VWS V14.01,2013-02-21 17:11:00,
2013-02-21 11:12:00,28.6,23.8,30.03,NNE,25,12.0,16.0,82,0.00,,---,0.00,VWS V14.01,2013-02-21 17:12:00,
2013-02-21 11:13:00,28.6,23.8,30.03,NNE,16,14.0,16.0,82,0.00,,---,0.00,VWS V14.01,2013-02-21 17:13:00,
2013-02-21 11:15:00,28.7,23.9,30.03,NE,37,11.0,16.0,82,0.00,,---,0.00,VWS V14.01,2013-02-21 17:15:00,
2013-02-21 11:17:00,28.7,23.9,30.03,ENE,58,11.0,16.0,82,0.00,,---,0.00,VWS V14.01,2013-02-21 17:17:00,
2013-02-21 11:18:00,28.7,23.6,30.03,NE,37,11.0,16.0,81,0.00,,---,0.00,VWS V14.01,2013-02-21 17:18:00,
2013-02-21 11:21:00,28.7,23.6,30.02,NNE,33,4.0,16.0,81,0.00,,---,0.00,VWS V14.01,2013-02-21 17:21:00,
2013-02-21 11:22:00,28.7,23.6,30.02,NE,41,7.0,16.0,81,0.00,,---,0.00,VWS V14.01,2013-02-21 17:22:00,
2013-02-21 11:23:00,28.7,23.9,30.02,North,6,4.0,16.0,82,0.00,,---,0.00,VWS V14.01,2013-02-21 17:23:00,
2013-02-21 11:26:00,28.7,23.9,30.02,NE,37,5.0,16.0,82,0.00,,---,0.00,VWS V14.01,2013-02-21 17:26:00,
2013-02-21 11:27:00,28.8,24.0,30.02,NE,41,8.0,16.0,82,0.00,,---,0.00,VWS V14.01,2013-02-21 17:27:00,
2013-02-21 11:28:00,28.7,23.6,30.02,NNE,32,4.0,8.0,81,0.00,,---,0.00,VWS V14.01,2013-02-21 17:28:00,
2013-02-21 11:30:00,28.7,23.9,30.02,NNE,24,8.0,16.0,82,0.00,,---,0.00,VWS V14.01,2013-02-21 17:30:00,
2013-02-21 11:31:00,28.8,24.0,30.01,North,4,3.0,8.0,82,0.00,,---,0.00,VWS V14.01,2013-02-21 17:31:00,
2013-02-21 11:32:00,28.8,24.0,30.01,NE,44,8.0,11.0,82,0.00,,---,0.00,VWS V14.01,2013-02-21 17:32:00,
2013-02-21 11:33:00,28.8,24.0,30.01,NNE,31,7.0,11.0,82,0.00,,---,0.00,VWS V14.01,2013-02-21 17:33:00,
2013-02-21 11:36:00,28.8,24.0,30.00,North,8,6.0,11.0,82,0.00,,---,0.00,VWS V14.01,2013-02-21 17:36:00,
2013-02-21 11:38:00,28.9,23.8,30.00,NNE,15,9.0,11.0,81,0.00,,---,0.00,VWS V14.01,2013-02-21 17:38:00,
2013-02-21 11:41:00,28.9,24.1,30.01,NNE,21,6.0,11.0,82,0.00,,---,0.00,VWS V14.01,2013-02-21 17:41:00,
2013-02-21 11:43:00,28.9,24.1,30.00,NNE,30,7.0,11.0,82,0.00,,---,0.00,VWS V14.01,2013-02-21 17:43:00,
2013-02-21 11:44:00,29.0,24.2,30.00,NNE,15,7.0,11.0,82,0.00,,---,0.00,VWS V14.01,2013-02-21 17:44:00,
2013-02-21 11:46:00,29.0,23.9,30.00,NNE,13,6.0,11.0,81,0.00,,---,0.00,VWS V14.01,2013-02-21 17:46:00,
2013-02-21 11:48:00,29.0,23.9,30.00,North,6,4.0,12.0,81,0.00,,---,0.00,VWS V14.01,2013-02-21 17:48:00,
2013-02-21 11:49:00,29.0,23.9,30.00,ENE,58,7.0,12.0,81,0.00,,---,0.00,VWS V14.01,2013-02-21 17:49:00,
2013-02-21 11:52:00,29.1,24.0,29.99,NNE,30,7.0,12.0,81,0.00,,---,0.00,VWS V14.01,2013-02-21 17:52:00,
2013-02-21 11:53:00,29.2,24.1,29.99,NNE,12,8.0,12.0,81,0.00,,---,0.00,VWS V14.01,2013-02-21 17:53:00,
2013-02-21 11:54:00,29.2,24.1,29.99,North,353,4.0,12.0,81,0.00,,---,0.00,VWS V14.01,2013-02-21 17:54:00,
2013-02-21 11:57:00,29.2,23.8,30.00,NNE,30,5.0,12.0,80,0.00,,---,0.00,VWS V14.01,2013-02-21 17:57:00,
2013-02-21 11:58:00,29.2,23.8,30.00,NNE,17,6.0,9.0,80,0.00,,---,0.00,VWS V14.01,2013-02-21 17:58:00,
2013-02-21 11:59:00,29.2,23.8,30.00,NE,44,5.0,9.0,80,0.00,,---,0.00,VWS V14.01,2013-02-21 17:59:00,
2013-02-21 12:00:00,29.2,23.8,30.00,NNW,339,8.0,12.0,80,0.00,,---,0.00,VWS V14.01,2013-02-21 18:00:00,
2013-02-21 12:02:00,29.4,24.3,30.00,NNE,16,2.0,9.0,81,0.00,,---,0.00,VWS V14.01,2013-02-21 18:02:00,
2013-02-21 12:03:00,29.4,24.3,30.00,NNW,348,7.0,9.0,81,0.00,,---,0.00,VWS V14.01,2013-02-21 18:03:00,
2013-02-21 12:04:00,29.4,24.3,30.00,NNE,15,7.0,9.0,81,0.00,,---,0.00,VWS V14.01,2013-02-21 18:04:00,
2013-02-21 12:07:00,29.4,24.3,29.99,NNE,12,5.0,11.0,81,0.00,,---,0.00,VWS V14.01,2013-02-21 18:07:00,
2013-02-21 12:08:00,29.4,24.3,29.99,NNE,20,6.0,11.0,81,0.00,,---,0.00,VWS V14.01,2013-02-21 18:08:00,
2013-02-21 12:10:00,29.4,24.3,29.99,North,356,8.0,11.0,81,0.00,,---,0.00,VWS V14.01,2013-02-21 18:10:00,
2013-02-21 12:12:00,29.4,24.3,29.98,NE,39,7.0,11.0,81,0.00,,---,0.00,VWS V14.01,2013-02-21 18:12:00,
2013-02-21 12:13:00,29.5,24.4,29.98,NE,46,5.0,11.0,81,0.00,,---,0.00,VWS V14.01,2013-02-21 18:13:00,
2013-02-21 12:14:00,29.5,24.4,29.98,NE,34,5.0,11.0,81,0.00,,---,0.00,VWS V14.01,2013-02-21 18:14:00,
2013-02-21 12:15:00,29.5,24.7,29.98,NNE,17,3.0,11.0,82,0.00,,---,0.00,VWS V14.01,2013-02-21 18:15:00,
2013-02-21 12:17:00,29.5,24.7,29.98,NE,35,4.0,11.0,82,0.00,,---,0.00,VWS V14.01,2013-02-21 18:17:00,
2013-02-21 12:18:00,29.5,24.7,29.98,North,360,8.0,11.0,82,0.00,,---,0.00,VWS V14.01,2013-02-21 18:18:00,
2013-02-21 12:19:00,29.5,24.7,29.98,North,352,6.0,11.0,82,0.00,,---,0.00,VWS V14.01,2013-02-21 18:19:00,
2013-02-21 12:20:00,29.5,24.7,29.98,NNE,31,8.0,11.0,82,0.00,,---,0.00,VWS V14.01,2013-02-21 18:20:00,
2013-02-21 12:22:00,29.6,24.8,29.98,NNE,16,4.0,11.0,82,0.00,,---,0.00,VWS V14.01,2013-02-21 18:22:00,
2013-02-21 12:23:00,29.6,24.8,29.98,North,1,4.0,11.0,82,0.00,,---,0.00,VWS V14.01,2013-02-21 18:23:00,
2013-02-21 12:24:00,29.6,24.8,29.98,North,354,3.0,11.0,82,0.00,,---,0.00,VWS V14.01,2013-02-21 18:24:00,
2013-02-21 12:25:00,29.6,24.8,29.98,NNE,24,5.0,11.0,82,0.00,,---,0.00,VWS V14.01,2013-02-21 18:25:00,
2013-02-21 12:27:00,29.6,24.8,29.98,North,3,1.0,2.0,82,0.00,,---,0.00,VWS V14.01,2013-02-21 18:27:00,
2013-02-21 12:29:00,29.6,24.8,29.98,North,354,6.0,8.0,82,0.00,,---,0.00,VWS V14.01,2013-02-21 18:29:00,
2013-02-21 12:30:00,29.6,24.8,29.98,North,8,3.0,8.0,82,0.00,,---,0.00,VWS V14.01,2013-02-21 18:30:00,
2013-02-21 12:32:00,29.7,25.2,29.98,NNE,25,2.0,8.0,83,0.00,,---,0.00,VWS V14.01,2013-02-21 18:32:00,
2013-02-21 12:34:00,29.8,25.3,29.98,North,359,4.0,8.0,83,0.00,,---,0.00,VWS V14.01,2013-02-21 18:34:00,
2013-02-21 12:35:00,29.8,25.3,29.98,NW,325,5.0,8.0,83,0.00,,---,0.00,VWS V14.01,2013-02-21 18:35:00,
2013-02-21 12:37:00,29.7,25.2,29.97,North,353,7.0,12.0,83,0.00,,---,0.00,VWS V14.01,2013-02-21 18:37:00,
2013-02-21 12:39:00,29.7,24.9,29.97,NNE,19,6.0,12.0,82,0.00,,---,0.00,VWS V14.01,2013-02-21 18:39:00,
2013-02-21 12:40:00,29.7,24.9,29.97,North,356,6.0,12.0,82,0.00,,---,0.00,VWS V14.01,2013-02-21 18:40:00,
2013-02-21 12:42:00,29.7,24.9,29.97,North,4,4.0,12.0,82,0.00,,---,0.00,VWS V14.01,2013-02-21 18:42:00,
2013-02-21 12:44:00,29.7,25.2,29.98,North,10,5.0,12.0,83,0.00,,---,0.00,VWS V14.01,2013-02-21 18:44:00,
2013-02-21 12:45:00,29.7,25.2,29.98,NE,48,4.0,12.0,83,0.00,,---,0.00,VWS V14.01,2013-02-21 18:45:00,
2013-02-21 12:48:00,29.8,25.3,29.99,NNE,28,1.0,12.0,83,0.00,,---,0.00,VWS V14.01,2013-02-21 18:48:00,
2013-02-21 12:49:00,29.8,25.3,29.99,ENE,57,5.0,12.0,83,0.00,,---,0.00,VWS V14.01,2013-02-21 18:49:00,
2013-02-21 12:50:00,29.8,25.3,29.99,NE,41,3.0,12.0,83,0.00,,---,0.00,VWS V14.01,2013-02-21 18:50:00,
2013-02-21 12:53:00,29.9,25.4,30.00,NE,51,1.0,12.0,83,0.00,,---,0.00,VWS V14.01,2013-02-21 18:53:00,
2013-02-21 12:55:00,30.0,25.8,30.00,East,89,2.0,12.0,84,0.00,,---,0.00,VWS V14.01,2013-02-21 18:55:00,
2013-02-21 12:56:00,30.0,25.8,30.00,East,89,2.0,12.0,84,0.00,,---,0.00,VWS V14.01,2013-02-21 18:56:00,
2013-02-21 12:58:00,29.9,25.4,30.00,East,89,0.0,0.0,83,0.00,,---,0.00,VWS V14.01,2013-02-21 18:58:00,
2013-02-21 13:00:00,29.9,25.7,30.00,East,89,1.0,2.0,84,0.00,,---,0.00,VWS V14.01,2013-02-21 19:00:00,
2013-02-21 13:01:00,29.9,25.7,30.00,East,88,1.0,3.0,84,0.00,,---,0.00,VWS V14.01,2013-02-21 19:01:00,
2013-02-21 13:03:00,30.0,25.8,30.00,East,89,0.0,3.0,84,0.00,,---,0.00,VWS V14.01,2013-02-21 19:03:00,
2013-02-21 13:05:00,29.9,25.7,30.00,NNE,23,3.0,4.0,84,0.00,,---,0.00,VWS V14.01,2013-02-21 19:05:00,
2013-02-21 13:06:00,29.9,25.7,30.00,NE,35,1.0,6.0,84,0.00,,---,0.00,VWS V14.01,2013-02-21 19:06:00,
2013-02-21 13:08:00,30.0,25.8,30.00,NE,35,2.0,6.0,84,0.00,,---,0.00,VWS V14.01,2013-02-21 19:08:00,
2013-02-21 13:10:00,30.0,26.0,30.00,North,11,2.0,6.0,85,0.00,,---,0.00,VWS V14.01,2013-02-21 19:10:00,
2013-02-21 13:11:00,30.0,26.0,30.00,NNE,20,3.0,6.0,85,0.00,,---,0.00,VWS V14.01,2013-02-21 19:11:00,
2013-02-21 13:14:00,30.0,26.0,30.01,NNE,25,1.0,6.0,85,0.00,,---,0.00,VWS V14.01,2013-02-21 19:14:00,
2013-02-21 13:15:00,29.9,26.0,30.02,NNE,25,0.0,6.0,85,0.00,,---,0.00,VWS V14.01,2013-02-21 19:15:00,
2013-02-21 13:16:00,30.0,26.0,30.02,NNE,25,1.0,6.0,85,0.00,,---,0.00,VWS V14.01,2013-02-21 19:16:00,
2013-02-21 13:19:00,30.0,26.0,30.02,NNE,25,0.0,6.0,85,0.00,,---,0.00,VWS V14.01,2013-02-21 19:19:00,
2013-02-21 13:20:00,30.1,26.4,30.02,NNE,25,1.0,6.0,86,0.00,,---,0.00,VWS V14.01,2013-02-21 19:20:00,
2013-02-21 13:21:00,30.1,26.4,30.02,NNE,25,0.0,6.0,86,0.00,,---,0.00,VWS V14.01,2013-02-21 19:21:00,
2013-02-21 13:24:00,30.2,26.8,30.02,NNW,335,3.0,6.0,87,0.00,,---,0.00,VWS V14.01,2013-02-21 19:24:00,
2013-02-21 13:25:00,30.2,26.8,30.02,NNW,346,2.0,6.0,87,0.00,,---,0.00,VWS V14.01,2013-02-21 19:25:00,
2013-02-21 13:27:00,30.1,26.4,30.02,NNE,20,2.0,6.0,86,0.00,,---,0.00,VWS V14.01,2013-02-21 19:27:00,
2013-02-21 13:29:00,30.2,26.5,30.02,NNE,20,3.0,3.0,86,0.00,,---,0.00,VWS V14.01,2013-02-21 19:29:00,
2013-02-21 13:30:00,30.1,26.7,30.02,NNE,29,4.0,5.0,87,0.00,,---,0.00,VWS V14.01,2013-02-21 19:30:00,
2013-02-21 13:32:00,30.2,26.8,30.02,NNE,29,4.0,5.0,87,0.00,,---,0.00,VWS V14.01,2013-02-21 19:32:00,
2013-02-21 13:34:00,30.2,26.8,30.02,NNE,29,2.0,5.0,87,0.00,,---,0.00,VWS V14.01,2013-02-21 19:34:00,
2013-02-21 13:35:00,30.2,26.8,30.02,NNE,29,1.0,5.0,87,0.00,,---,0.00,VWS V14.01,2013-02-21 19:35:00,
2013-02-21 13:36:00,30.3,27.2,30.03,NNE,29,2.0,5.0,88,0.00,,---,0.00,VWS V14.01,2013-02-21 19:36:00,
2013-02-21 13:38:00,30.3,27.2,30.03,NNE,29,2.0,5.0,88,0.00,,---,0.00,VWS V14.01,2013-02-21 19:38:00,
2013-02-21 13:39:00,30.3,27.2,30.03,NNE,29,2.0,5.0,88,0.00,,---,0.00,VWS V14.01,2013-02-21 19:39:00,
2013-02-21 13:40:00,30.3,27.2,30.03,NNE,29,4.0,5.0,88,0.00,,---,0.00,VWS V14.01,2013-02-21 19:40:00,
2013-02-21 13:41:00,30.3,27.2,30.03,NNE,29,2.0,5.0,88,0.00,,---,0.00,VWS V14.01,2013-02-21 19:41:00,
2013-02-21 13:43:00,30.4,27.3,30.04,NNE,29,3.0,5.0,88,0.00,,---,0.00,VWS V14.01,2013-02-21 19:43:00,
2013-02-21 13:45:00,30.3,27.2,30.03,NNE,29,2.0,5.0,88,0.00,,---,0.00,VWS V14.01,2013-02-21 19:45:00,
2013-02-21 13:46:00,30.4,27.3,30.03,NNE,29,4.0,5.0,88,0.00,,---,0.00,VWS V14.01,2013-02-21 19:46:00,
2013-02-21 13:49:00,30.5,27.6,30.02,NNE,29,3.0,5.0,89,0.00,,---,0.00,VWS V14.01,2013-02-21 19:49:00,
2013-02-21 13:50:00,30.5,27.6,30.02,NNE,29,4.0,5.0,89,0.00,,---,0.00,VWS V14.01,2013-02-21 19:50:00,
2013-02-21 13:51:00,30.5,27.6,30.02,NNE,29,4.0,5.0,89,0.00,,---,0.00,VWS V14.01,2013-02-21 19:51:00,
2013-02-21 13:54:00,30.6,27.8,30.01,NNE,29,4.0,7.0,89,0.00,,---,0.00,VWS V14.01,2013-02-21 19:54:00,
2013-02-21 13:55:00,30.5,27.6,30.01,NNE,29,7.0,9.0,89,0.00,,---,0.00,VWS V14.01,2013-02-21 19:55:00,
2013-02-21 13:56:00,30.5,27.6,30.01,NNE,29,5.0,9.0,89,0.00,,---,0.00,VWS V14.01,2013-02-21 19:56:00,
2013-02-21 13:59:00,30.4,27.5,30.00,NNE,29,8.0,9.0,89,0.00,,---,0.00,VWS V14.01,2013-02-21 19:59:00,
2013-02-21 14:00:00,30.4,27.5,30.00,NNE,29,5.0,9.0,89,0.00,,---,0.00,VWS V14.01,2013-02-21 20:00:00,
2013-02-21 14:01:00,30.4,27.5,30.00,NNE,29,7.0,9.0,89,0.00,,---,0.00,VWS V14.01,2013-02-21 20:01:00,
2013-02-21 14:04:00,30.5,27.9,29.99,NNE,29,5.0,9.0,90,0.00,,---,0.00,VWS V14.01,2013-02-21 20:04:00,
2013-02-21 14:06:00,30.5,27.9,29.98,NNE,29,3.0,9.0,90,0.00,,---,0.00,VWS V14.01,2013-02-21 20:06:00,
2013-02-21 14:08:00,30.5,27.9,29.98,NNE,29,0.0,9.0,90,0.00,,---,0.00,VWS V14.01,2013-02-21 20:08:00,
2013-02-21 14:09:00,30.5,27.9,29.98,NNE,29,0.0,9.0,90,0.00,,---,0.00,VWS V14.01,2013-02-21 20:09:00,
2013-02-21 14:11:00,30.5,27.9,29.98,NNE,29,0.0,9.0,90,0.00,,---,0.00,VWS V14.01,2013-02-21 20:11:00,
2013-02-21 14:14:00,30.5,27.9,29.98,NNE,29,0.0,9.0,90,0.00,,---,0.00,VWS V14.01,2013-02-21 20:14:00,
2013-02-21 14:17:00,30.5,27.9,29.97,NNE,29,0.0,9.0,90,0.00,,---,0.00,VWS V14.01,2013-02-21 20:17:00,
2013-02-21 14:19:00,30.5,27.9,29.95,NNE,29,0.0,9.0,90,0.00,,---,0.00,VWS V14.01,2013-02-21 20:19:00,
2013-02-21 14:20:00,30.5,27.9,29.95,NNE,29,0.0,9.0,90,0.00,,---,0.00,VWS V14.01,2013-02-21 20:20:00,
2013-02-21 14:22:00,30.5,28.2,29.95,NNE,29,0.0,9.0,91,0.00,,---,0.00,VWS V14.01,2013-02-21 20:22:00,
2013-02-21 14:25:00,30.5,28.2,29.96,NNE,29,0.0,9.0,91,0.00,,---,0.00,VWS V14.01,2013-02-21 20:25:00,
2013-02-21 14:27:00,30.6,28.3,29.96,NNE,29,0.0,9.0,91,0.00,,---,0.00,VWS V14.01,2013-02-21 20:27:00,
2013-02-21 14:30:00,30.6,28.3,29.97,NNE,29,0.0,0.0,91,0.00,,---,0.00,VWS V14.01,2013-02-21 20:30:00,
2013-02-21 14:31:00,30.6,28.3,29.97,NNE,29,0.0,0.0,91,0.00,,---,0.00,VWS V14.01,2013-02-21 20:31:00,
2013-02-21 14:32:00,30.6,28.3,29.97,NNE,29,0.0,0.0,91,0.00,,---,0.00,VWS V14.01,2013-02-21 20:32:00,
2013-02-21 14:36:00,30.6,28.3,29.97,NNE,29,0.0,0.0,91,0.00,,---,0.00,VWS V14.01,2013-02-21 20:36:00,
2013-02-21 14:37:00,30.6,28.3,29.97,NNE,29,0.0,0.0,91,0.00,,---,0.00,VWS V14.01,2013-02-21 20:37:00,
2013-02-21 14:38:00,30.6,28.3,29.97,NNE,29,0.0,0.0,91,0.00,,---,0.00,VWS V14.01,2013-02-21 20:38:00,
2013-02-21 14:41:00,30.7,28.4,29.96,NNE,29,0.0,0.0,91,0.00,,---,0.00,VWS V14.01,2013-02-21 20:41:00,
2013-02-21 14:42:00,30.7,28.4,29.96,NNE,29,0.0,0.0,91,0.00,,---,0.00,VWS V14.01,2013-02-21 20:42:00,
2013-02-21 14:43:00,30.7,28.4,29.95,NNE,29,0.0,0.0,91,0.00,,---,0.00,VWS V14.01,2013-02-21 20:43:00,
2013-02-21 14:46:00,30.7,28.7,29.95,NNE,29,0.0,0.0,92,0.00,,---,0.00,VWS V14.01,2013-02-21 20:46:00,
2013-02-21 14:47:00,30.7,28.7,29.95,NNE,29,0.0,0.0,92,0.00,,---,0.00,VWS V14.01,2013-02-21 20:47:00,
2013-02-21 14:48:00,30.7,28.7,29.95,NNE,29,0.0,0.0,92,0.00,,---,0.00,VWS V14.01,2013-02-21 20:48:00,
2013-02-21 14:51:00,30.7,28.7,29.94,NNE,29,0.0,0.0,92,0.00,,---,0.00,VWS V14.01,2013-02-21 20:51:00,
2013-02-21 14:52:00,30.7,28.7,29.94,NNE,29,0.0,0.0,92,0.00,,---,0.00,VWS V14.01,2013-02-21 20:52:00,
2013-02-21 14:53:00,30.7,28.7,29.94,NNE,29,0.0,0.0,92,0.00,,---,0.00,VWS V14.01,2013-02-21 20:53:00,
2013-02-21 14:54:00,30.7,28.7,29.94,NNE,29,0.0,0.0,92,0.00,,---,0.00,VWS V14.01,2013-02-21 20:54:00,
2013-02-21 14:56:00,30.7,28.7,29.94,NNE,29,0.0,0.0,92,0.00,,---,0.00,VWS V14.01,2013-02-21 20:56:00,
2013-02-21 14:57:00,30.8,28.8,29.94,NNE,29,0.0,0.0,92,0.00,,---,0.00,VWS V14.01,2013-02-21 20:57:00,
2013-02-21 14:59:00,30.7,28.7,29.94,NNE,29,0.0,0.0,92,0.00,,---,0.00,VWS V14.01,2013-02-21 20:59:00,
2013-02-21 15:00:00,30.7,28.7,29.94,NNE,29,0.0,0.0,92,0.00,,---,0.00,VWS V14.01,2013-02-21 21:00:00,
2013-02-21 15:01:00,30.7,28.7,29.94,NNE,29,0.0,0.0,92,0.00,,---,0.00,VWS V14.01,2013-02-21 21:01:00,
2013-02-21 15:03:00,30.7,28.7,29.94,NNE,29,0.0,0.0,92,0.00,,---,0.00,VWS V14.01,2013-02-21 21:03:00,
2013-02-21 15:04:00,30.8,28.8,29.93,NNE,29,0.0,0.0,92,0.00,,---,0.00,VWS V14.01,2013-02-21 21:04:00,
2013-02-21 15:06:00,30.8,28.8,29.93,NNE,29,0.0,0.0,92,0.00,,---,0.00,VWS V14.01,2013-02-21 21:06:00,
2013-02-21 15:08:00,30.8,28.8,29.93,NNE,29,0.0,0.0,92,0.00,,---,0.00,VWS V14.01,2013-02-21 21:08:00,
2013-02-21 15:09:00,30.9,28.9,29.93,NNE,29,0.0,0.0,92,0.00,,---,0.00,VWS V14.01,2013-02-21 21:09:00,
2013-02-21 15:11:00,30.9,28.9,29.93,NNE,29,0.0,0.0,92,0.00,,---,0.00,VWS V14.01,2013-02-21 21:11:00,
2013-02-21 15:13:00,30.9,28.9,29.92,NNE,29,0.0,0.0,92,0.00,,---,0.00,VWS V14.01,2013-02-21 21:13:00,
2013-02-21 15:14:00,31.0,29.0,29.91,NNE,29,0.0,0.0,92,0.00,,---,0.00,VWS V14.01,2013-02-21 21:14:00,
2013-02-21 15:17:00,31.0,29.0,29.91,NNE,29,0.0,0.0,92,0.00,,---,0.00,VWS V14.01,2013-02-21 21:17:00,
2013-02-21 15:18:00,31.0,29.0,29.91,NNE,29,0.0,0.0,92,0.00,,---,0.00,VWS V14.01,2013-02-21 21:18:00,
2013-02-21 15:19:00,31.0,29.0,29.91,NNE,29,0.0,0.0,92,0.00,,---,0.00,VWS V14.01,2013-02-21 21:19:00,
2013-02-21 15:20:00,31.0,29.0,29.91,NNE,29,0.0,0.0,92,0.00,,---,0.00,VWS V14.01,2013-02-21 21:20:00,
2013-02-21 15:23:00,31.0,29.0,29.90,NNE,29,0.0,0.0,92,0.00,,---,0.00,VWS V14.01,2013-02-21 21:23:00,
2013-02-21 15:24:00,31.0,29.0,29.89,NNE,29,0.0,0.0,92,0.00,,---,0.00,VWS V14.01,2013-02-21 21:24:00,
2013-02-21 15:25:00,31.0,29.0,29.89,NNE,29,0.0,0.0,92,0.00,,---,0.00,VWS V14.01,2013-02-21 21:25:00,
2013-02-21 15:28:00,31.1,29.0,29.91,NNE,29,0.0,0.0,92,0.00,,---,0.00,VWS V14.01,2013-02-21 21:28:00,
2013-02-21 15:29:00,31.1,29.0,29.90,NNE,29,0.0,0.0,92,0.00,,---,0.00,VWS V14.01,2013-02-21 21:29:00,
2013-02-21 15:30:00,31.2,29.1,29.90,NNE,29,0.0,0.0,92,0.00,,---,0.00,VWS V14.01,2013-02-21 21:30:00,
2013-02-21 15:33:00,31.2,29.4,29.90,NNE,29,0.0,0.0,93,0.00,,---,0.00,VWS V14.01,2013-02-21 21:33:00,
2013-02-21 15:34:00,31.2,29.4,29.90,NNE,29,0.0,0.0,93,0.00,,---,0.00,VWS V14.01,2013-02-21 21:34:00,
2013-02-21 15:35:00,31.2,29.4,29.90,NNE,29,0.0,0.0,93,0.00,,---,0.00,VWS V14.01,2013-02-21 21:35:00,
2013-02-21 15:39:00,31.3,29.5,29.89,NNE,29,0.0,0.0,93,0.00,,---,0.00,VWS V14.01,2013-02-21 21:39:00,
2013-02-21 15:45:00,31.3,29.2,29.85,NNE,29,0.0,0.0,92,0.00,,---,0.00,VWS V14.01,2013-02-21 21:45:00,
2013-02-21 15:50:00,31.4,29.6,29.87,NNE,29,0.0,0.0,93,0.00,,---,0.00,VWS V14.01,2013-02-21 21:50:00,
2013-02-21 15:55:00,31.4,29.6,29.90,NNE,29,0.0,0.0,93,0.00,,---,0.00,VWS V14.01,2013-02-21 21:55:00,
2013-02-21 15:56:00,31.4,29.6,29.92,NNE,29,0.0,0.0,93,0.00,,---,0.00,VWS V14.01,2013-02-21 21:56:00,
2013-02-21 16:00:00,31.4,29.6,29.91,NNE,29,0.0,0.0,93,0.00,,---,0.00,VWS V14.01,2013-02-21 22:00:00,
2013-02-21 16:01:00,31.4,29.6,29.91,NNE,29,0.0,0.0,93,0.00,,---,0.00,VWS V14.01,2013-02-21 22:01:00,
2013-02-21 16:02:00,31.4,29.6,29.91,NNE,29,0.0,0.0,93,0.00,,---,0.00,VWS V14.01,2013-02-21 22:02:00,
2013-02-21 16:05:00,31.5,29.7,29.87,NNE,29,0.0,0.0,93,0.00,,---,0.00,VWS V14.01,2013-02-21 22:05:00,
2013-02-21 16:06:00,31.5,29.7,29.87,NNE,29,0.0,0.0,93,0.00,,---,0.00,VWS V14.01,2013-02-21 22:06:00,
2013-02-21 16:07:00,31.5,29.7,29.88,NNE,29,0.0,0.0,93,0.00,,---,0.00,VWS V14.01,2013-02-21 22:07:00,
2013-02-21 16:10:00,31.5,29.7,29.88,NNE,29,0.0,0.0,93,0.00,,---,0.00,VWS V14.01,2013-02-21 22:10:00,
2013-02-21 16:11:00,31.6,29.8,29.89,NNE,29,0.0,0.0,93,0.00,,---,0.00,VWS V14.01,2013-02-21 22:11:00,
2013-02-21 16:12:00,31.6,29.8,29.89,NNE,29,0.0,0.0,93,0.00,,---,0.00,VWS V14.01,2013-02-21 22:12:00,
2013-02-21 16:13:00,31.6,29.8,29.89,NNE,29,0.0,0.0,93,0.00,,---,0.00,VWS V14.01,2013-02-21 22:13:00,
2013-02-21 16:16:00,31.6,29.8,29.89,NNE,29,0.0,0.0,93,0.00,,---,0.00,VWS V14.01,2013-02-21 22:16:00,
2013-02-21 16:17:00,31.6,29.8,29.89,NNE,29,0.0,0.0,93,0.00,,---,0.00,VWS V14.01,2013-02-21 22:17:00,
2013-02-21 16:18:00,31.6,29.8,29.89,NNE,29,0.0,0.0,93,0.00,,---,0.00,VWS V14.01,2013-02-21 22:18:00,
2013-02-21 16:21:00,31.7,29.9,29.90,NNE,29,0.0,0.0,93,0.00,,---,0.00,VWS V14.01,2013-02-21 22:21:00,
2013-02-21 16:22:00,31.7,29.9,29.90,NNE,29,0.0,0.0,93,0.00,,---,0.00,VWS V14.01,2013-02-21 22:22:00,
2013-02-21 16:23:00,31.7,29.9,29.90,NNE,29,0.0,0.0,93,0.00,,---,0.00,VWS V14.01,2013-02-21 22:23:00,
2013-02-21 16:26:00,31.7,29.9,29.90,NNE,29,0.0,0.0,93,0.00,,---,0.00,VWS V14.01,2013-02-21 22:26:00,
2013-02-21 16:27:00,31.7,29.6,29.89,NNE,29,0.0,0.0,92,0.00,,---,0.00,VWS V14.01,2013-02-21 22:27:00,
2013-02-21 16:28:00,31.8,30.0,29.89,NNE,29,0.0,0.0,93,0.00,,---,0.00,VWS V14.01,2013-02-21 22:28:00,
2013-02-21 16:30:00,31.7,29.9,29.89,NNE,29,0.0,0.0,93,0.00,,---,0.00,VWS V14.01,2013-02-21 22:30:00,
2013-02-21 16:32:00,31.8,30.0,29.89,NNE,29,0.0,0.0,93,0.00,,---,0.00,VWS V14.01,2013-02-21 22:32:00,
2013-02-21 16:34:00,31.8,30.0,29.89,NNE,29,0.0,0.0,93,0.00,,---,0.00,VWS V14.01,2013-02-21 22:34:00,
2013-02-21 16:37:00,31.8,30.0,29.90,NNE,29,0.0,0.0,93,0.00,,---,0.00,VWS V14.01,2013-02-21 22:37:00,
2013-02-21 16:38:00,31.8,30.0,29.90,NNE,29,0.0,0.0,93,0.00,,---,0.00,VWS V14.01,2013-02-21 22:38:00,
2013-02-21 16:39:00,31.8,30.0,29.91,NNE,29,0.0,0.0,93,0.00,,---,0.00,VWS V14.01,2013-02-21 22:39:00,
2013-02-21 16:42:00,31.9,30.1,29.89,NNE,29,0.0,0.0,93,0.00,,---,0.00,VWS V14.01,2013-02-21 22:42:00,
2013-02-21 16:43:00,31.9,30.1,29.89,NNE,29,0.0,0.0,93,0.00,,---,0.00,VWS V14.01,2013-02-21 22:43:00,
2013-02-21 16:44:00,31.9,30.1,29.89,NNE,29,0.0,0.0,93,0.00,,---,0.00,VWS V14.01,2013-02-21 22:44:00,
2013-02-21 16:52:00,31.9,30.1,29.88,NNE,29,0.0,0.0,93,0.00,,---,0.00,VWS V14.01,2013-02-21 22:52:00,
2013-02-21 16:57:00,32.0,30.2,29.89,NNE,29,0.0,0.0,93,0.00,,---,0.00,VWS V14.01,2013-02-21 22:57:00,
2013-02-21 16:58:00,32.0,30.2,29.89,NNE,29,0.0,0.0,93,0.00,,---,0.00,VWS V14.01,2013-02-21 22:58:00,
2013-02-21 17:00:00,31.9,30.1,29.89,NNE,29,0.0,0.0,93,0.00,,---,0.00,VWS V14.01,2013-02-21 23:00:00,
2013-02-21 17:02:00,32.0,30.5,29.89,NNE,29,0.0,0.0,94,0.00,,---,0.00,VWS V14.01,2013-02-21 23:02:00,
2013-02-21 17:03:00,32.0,30.5,29.89,NNE,29,0.0,0.0,94,0.00,,---,0.00,VWS V14.01,2013-02-21 23:03:00,
2013-02-21 17:07:00,32.1,30.6,29.87,NNE,29,0.0,0.0,94,0.00,,---,0.00,VWS V14.01,2013-02-21 23:07:00,
2013-02-21 17:08:00,32.1,30.6,29.87,NNE,29,0.0,0.0,94,0.00,,---,0.00,VWS V14.01,2013-02-21 23:08:00,
2013-02-21 17:12:00,32.0,30.5,29.86,NNE,29,0.0,0.0,94,0.00,,---,0.00,VWS V14.01,2013-02-21 23:12:00,
2013-02-21 17:13:00,32.0,30.5,29.86,NNE,29,0.0,0.0,94,0.00,,---,0.00,VWS V14.01,2013-02-21 23:13:00,
2013-02-21 17:18:00,32.0,30.5,29.86,NNE,29,0.0,0.0,94,0.00,,---,0.00,VWS V14.01,2013-02-21 23:18:00,
2013-02-21 17:19:00,32.0,30.5,29.86,NNE,29,0.0,0.0,94,0.00,,---,0.00,VWS V14.01,2013-02-21 23:19:00,
2013-02-21 17:23:00,32.0,30.5,29.86,NNE,29,0.0,0.0,94,0.00,,---,0.00,VWS V14.01,2013-02-21 23:23:00,
2013-02-21 17:24:00,32.0,30.5,29.87,NNE,29,0.0,0.0,94,0.00,,---,0.00,VWS V14.01,2013-02-21 23:24:00,
2013-02-21 17:28:00,32.1,30.6,29.87,NNE,29,0.0,0.0,94,0.00,,---,0.00,VWS V14.01,2013-02-21 23:28:00,
2013-02-21 17:29:00,32.1,30.6,29.86,NNE,29,0.0,0.0,94,0.00,,---,0.00,VWS V14.01,2013-02-21 23:29:00,
2013-02-21 17:30:00,32.1,30.6,29.87,NNE,29,0.0,0.0,94,0.00,,---,0.00,VWS V14.01,2013-02-21 23:30:00,
2013-02-21 17:33:00,32.1,30.6,29.87,NNE,29,0.0,0.0,94,0.00,,---,0.00,VWS V14.01,2013-02-21 23:33:00,
2013-02-21 17:34:00,32.1,30.6,29.87,NNE,29,0.0,0.0,94,0.00,,---,0.00,VWS V14.01,2013-02-21 23:34:00,
2013-02-21 17:35:00,32.1,30.6,29.86,NNE,29,0.0,0.0,94,0.00,,---,0.00,VWS V14.01,2013-02-21 23:35:00,
2013-02-21 17:38:00,32.2,30.7,29.85,NNE,29,0.0,0.0,94,0.00,,---,0.00,VWS V14.01,2013-02-21 23:38:00,
2013-02-21 17:39:00,32.2,30.7,29.85,NNE,29,0.0,0.0,94,0.00,,---,0.00,VWS V14.01,2013-02-21 23:39:00,
2013-02-21 17:41:00,32.2,30.7,29.85,NNE,29,0.0,0.0,94,0.00,,---,0.00,VWS V14.01,2013-02-21 23:41:00,
2013-02-21 17:44:00,32.2,30.7,29.85,NNE,29,0.0,0.0,94,0.00,,---,0.00,VWS V14.01,2013-02-21 23:44:00,
2013-02-21 17:46:00,32.2,30.7,29.86,NNE,29,0.0,0.0,94,0.00,,---,0.00,VWS V14.01,2013-02-21 23:46:00,
2013-02-21 17:49:00,32.3,30.8,29.86,NNE,29,0.0,0.0,94,0.00,,---,0.00,VWS V14.01,2013-02-21 23:49:00,
2013-02-21 17:51:00,32.3,30.8,29.86,NNE,29,0.0,0.0,94,0.00,,---,0.00,VWS V14.01,2013-02-21 23:51:00,
2013-02-21 17:54:00,32.3,30.8,29.86,NNE,29,0.0,0.0,94,0.00,,---,0.00,VWS V14.01,2013-02-21 23:54:00,
2013-02-21 17:55:00,32.3,30.8,29.86,NNE,29,0.0,0.0,94,0.00,,---,0.00,VWS V14.01,2013-02-21 23:55:00,
2013-02-21 17:56:00,32.3,30.8,29.86,NNE,29,0.0,0.0,94,0.00,,---,0.00,VWS V14.01,2013-02-21 23:56:00,
2013-02-21 17:59:00,32.3,30.8,29.85,NNE,29,0.0,0.0,94,0.00,,---,0.00,VWS V14.01,2013-02-21 23:59:00,
2013-02-21 18:00:00,32.3,30.8,29.85,NNE,29,0.0,0.0,94,0.00,,---,0.00,VWS V14.01,2013-02-22 00:00:00,
2013-02-21 18:05:00,32.4,30.9,29.88,NNE,29,0.0,0.0,94,0.00,,---,0.00,VWS V14.01,2013-02-22 00:05:00,
2013-02-21 18:06:00,32.4,30.9,29.88,NNE,29,0.0,0.0,94,0.00,,---,0.00,VWS V14.01,2013-02-22 00:06:00,
2013-02-21 18:11:00,32.5,31.2,29.88,NNE,29,0.0,0.0,95,0.00,,---,0.00,VWS V14.01,2013-02-22 00:11:00,
2013-02-21 18:16:00,32.5,31.2,29.88,NNE,29,0.0,0.0,95,0.00,,---,0.00,VWS V14.01,2013-02-22 00:16:00,
2013-02-21 18:21:00,32.5,31.2,29.88,NNE,29,0.0,0.0,95,0.00,,---,0.00,VWS V14.01,2013-02-22 00:21:00,
2013-02-21 18:22:00,32.6,31.3,29.88,NNE,29,0.0,0.0,95,0.00,,---,0.00,VWS V14.01,2013-02-22 00:22:00,
2013-02-21 18:26:00,32.6,31.3,29.88,NNE,29,0.0,0.0,95,0.00,,---,0.00,VWS V14.01,2013-02-22 00:26:00,
2013-02-21 18:27:00,32.5,31.2,29.88,NNE,29,0.0,0.0,95,0.00,,---,0.00,VWS V14.01,2013-02-22 00:27:00,
2013-02-21 18:30:00,32.5,31.2,29.88,NNE,29,0.0,0.0,95,0.00,,---,0.00,VWS V14.01,2013-02-22 00:30:00,
2013-02-21 18:31:00,32.6,31.3,29.87,NNE,29,0.0,0.0,95,0.00,,---,0.00,VWS V14.01,2013-02-22 00:31:00,
2013-02-21 18:32:00,32.6,31.3,29.87,NNE,29,0.0,0.0,95,0.00,,---,0.00,VWS V14.01,2013-02-22 00:32:00,
2013-02-21 18:36:00,32.6,31.3,29.87,NNE,29,0.0,0.0,95,0.00,,---,0.00,VWS V14.01,2013-02-22 00:36:00,
2013-02-21 18:37:00,32.6,31.3,29.87,NNE,29,0.0,0.0,95,0.00,,---,0.00,VWS V14.01,2013-02-22 00:37:00,
2013-02-21 18:38:00,32.6,31.3,29.87,NNE,29,0.0,0.0,95,0.00,,---,0.00,VWS V14.01,2013-02-22 00:38:00,
2013-02-21 18:39:00,32.6,31.3,29.87,NNE,29,0.0,0.0,95,0.00,,---,0.00,VWS V14.01,2013-02-22 00:39:00,
2013-02-21 18:42:00,32.6,31.3,29.87,NNE,29,0.0,0.0,95,0.00,,---,0.00,VWS V14.01,2013-02-22 00:42:00,
2013-02-21 18:43:00,32.6,31.3,29.87,NNE,29,0.0,0.0,95,0.00,,---,0.00,VWS V14.01,2013-02-22 00:43:00,
2013-02-21 18:44:00,32.6,31.3,29.87,NNE,29,0.0,0.0,95,0.00,,---,0.00,VWS V14.01,2013-02-22 00:44:00,
2013-02-21 18:47:00,32.6,31.3,29.87,NNE,29,0.0,0.0,95,0.00,,---,0.00,VWS V14.01,2013-02-22 00:47:00,
2013-02-21 18:48:00,32.6,31.3,29.88,NNE,29,0.0,0.0,95,0.00,,---,0.00,VWS V14.01,2013-02-22 00:48:00,
2013-02-21 18:49:00,32.6,31.3,29.87,NNE,29,0.0,0.0,95,0.00,,---,0.00,VWS V14.01,2013-02-22 00:49:00,
2013-02-21 18:52:00,32.6,31.3,29.86,NNE,29,0.0,0.0,95,0.00,,---,0.00,VWS V14.01,2013-02-22 00:52:00,
2013-02-21 18:53:00,32.6,31.3,29.86,NNE,29,0.0,0.0,95,0.00,,---,0.00,VWS V14.01,2013-02-22 00:53:00,
2013-02-21 18:58:00,32.6,31.3,29.87,NNE,29,0.0,0.0,95,0.00,,---,0.00,VWS V14.01,2013-02-22 00:58:00,
2013-02-21 18:59:00,32.6,31.3,29.87,NNE,29,0.0,0.0,95,0.00,,---,0.00,VWS V14.01,2013-02-22 00:59:00,
2013-02-21 19:00:00,32.6,31.3,29.87,NNE,29,0.0,0.0,95,0.00,,---,0.00,VWS V14.01,2013-02-22 01:00:00,
2013-02-21 19:04:00,32.6,31.3,29.87,NNE,29,0.0,0.0,95,0.00,,---,0.00,VWS V14.01,2013-02-22 01:04:00,
2013-02-21 19:09:00,32.7,31.4,29.87,NNE,29,0.0,0.0,95,0.00,,---,0.00,VWS V14.01,2013-02-22 01:09:00,
2013-02-21 19:14:00,32.7,31.4,29.87,NNE,29,0.0,0.0,95,0.00,,---,0.00,VWS V14.01,2013-02-22 01:14:00,
2013-02-21 19:19:00,32.7,31.4,29.86,NNE,29,0.0,0.0,95,0.00,,---,0.00,VWS V14.01,2013-02-22 01:19:00,
2013-02-21 19:24:00,32.7,31.4,29.87,NNE,29,0.0,0.0,95,0.00,,---,0.00,VWS V14.01,2013-02-22 01:24:00,
2013-02-21 19:25:00,32.8,31.5,29.87,NNE,29,0.0,0.0,95,0.00,,---,0.00,VWS V14.01,2013-02-22 01:25:00,
2013-02-21 19:29:00,32.8,31.5,29.85,NNE,29,0.0,0.0,95,0.00,,---,0.00,VWS V14.01,2013-02-22 01:29:00,
2013-02-21 19:30:00,32.7,31.4,29.84,NNE,29,0.0,0.0,95,0.00,,---,0.00,VWS V14.01,2013-02-22 01:30:00,
2013-02-21 19:31:00,32.8,31.5,29.84,NNE,29,0.0,0.0,95,0.00,,---,0.00,VWS V14.01,2013-02-22 01:31:00,
2013-02-21 19:34:00,32.8,31.5,29.85,NNE,29,0.0,0.0,95,0.00,,---,0.00,VWS V14.01,2013-02-22 01:34:00,
2013-02-21 19:35:00,32.8,31.5,29.85,NNE,29,0.0,0.0,95,0.00,,---,0.00,VWS V14.01,2013-02-22 01:35:00,
2013-02-21 19:36:00,32.8,31.5,29.85,NNE,29,0.0,0.0,95,0.00,,---,0.00,VWS V14.01,2013-02-22 01:36:00,
2013-02-21 19:37:00,32.8,31.5,29.85,NNE,29,0.0,0.0,95,0.00,,---,0.00,VWS V14.01,2013-02-22 01:37:00,
2013-02-21 19:40:00,32.8,31.5,29.84,NNE,29,0.0,0.0,95,0.00,,---,0.00,VWS V14.01,2013-02-22 01:40:00,
2013-02-21 19:41:00,32.8,31.5,29.84,NNE,29,0.0,0.0,95,0.00,,---,0.00,VWS V14.01,2013-02-22 01:41:00,
2013-02-21 19:43:00,32.8,31.5,29.84,NNE,29,0.0,0.0,95,0.00,,---,0.00,VWS V14.01,2013-02-22 01:43:00,
2013-02-21 19:45:00,32.8,31.5,29.84,NNE,29,0.0,0.0,95,0.00,,---,0.00,VWS V14.01,2013-02-22 01:45:00,
2013-02-21 19:46:00,32.8,31.5,29.85,NNE,29,0.0,0.0,95,0.00,,---,0.00,VWS V14.01,2013-02-22 01:46:00,
2013-02-21 19:47:00,32.8,31.5,29.84,NNE,29,0.0,0.0,95,0.00,,---,0.00,VWS V14.01,2013-02-22 01:47:00,
2013-02-21 19:48:00,32.8,31.5,29.84,NNE,29,0.0,0.0,95,0.00,,---,0.00,VWS V14.01,2013-02-22 01:48:00,
2013-02-21 19:50:00,32.8,31.8,29.84,NNE,29,0.0,0.0,96,0.00,,---,0.00,VWS V14.01,2013-02-22 01:50:00,
2013-02-21 19:51:00,32.8,31.8,29.83,NNE,29,0.0,0.0,96,0.00,,---,0.00,VWS V14.01,2013-02-22 01:51:00,
2013-02-21 19:52:00,32.8,31.8,29.83,NNE,29,0.0,0.0,96,0.00,,---,0.00,VWS V14.01,2013-02-22 01:52:00,
2013-02-21 19:54:00,32.8,31.8,29.83,NNE,29,0.0,0.0,96,0.00,,---,0.00,VWS V14.01,2013-02-22 01:54:00,
2013-02-21 19:55:00,32.8,31.8,29.83,NNE,29,0.0,0.0,96,0.00,,---,0.00,VWS V14.01,2013-02-22 01:55:00,
2013-02-21 19:57:00,32.9,31.9,29.81,NNE,29,0.0,0.0,96,0.00,,---,0.00,VWS V14.01,2013-02-22 01:57:00,
2013-02-21 19:58:00,32.8,31.8,29.81,NNE,29,0.0,0.0,96,0.00,,---,0.00,VWS V14.01,2013-02-22 01:58:00,
2013-02-21 19:59:00,32.9,31.9,29.82,NNE,29,0.0,0.0,96,0.00,,---,0.00,VWS V14.01,2013-02-22 01:59:00,
2013-02-21 20:00:00,32.9,31.9,29.82,NNE,29,0.0,0.0,96,0.00,,---,0.00,VWS V14.01,2013-02-22 02:00:00,
2013-02-21 20:02:00,32.9,31.9,29.82,NNE,29,0.0,0.0,96,0.00,,---,0.00,VWS V14.01,2013-02-22 02:02:00,
2013-02-21 20:03:00,32.9,31.9,29.82,NNE,29,0.0,0.0,96,0.00,,---,0.00,VWS V14.01,2013-02-22 02:03:00,
2013-02-21 20:04:00,32.9,31.9,29.82,NNE,29,0.0,0.0,96,0.00,,---,0.00,VWS V14.01,2013-02-22 02:04:00,
2013-02-21 20:07:00,32.9,31.9,29.83,NNE,29,0.0,0.0,96,0.00,,---,0.00,VWS V14.01,2013-02-22 02:07:00,
2013-02-21 20:08:00,32.9,31.9,29.83,NNE,29,0.0,0.0,96,0.00,,---,0.00,VWS V14.01,2013-02-22 02:08:00,
2013-02-21 20:09:00,32.9,31.9,29.83,NNE,29,0.0,0.0,96,0.00,,---,0.00,VWS V14.01,2013-02-22 02:09:00,
2013-02-21 20:12:00,32.9,31.9,29.83,NNE,29,0.0,0.0,96,0.00,,---,0.00,VWS V14.01,2013-02-22 02:12:00,
2013-02-21 20:13:00,33.0,32.0,29.83,NNE,29,0.0,0.0,96,0.00,,---,0.00,VWS V14.01,2013-02-22 02:13:00,
2013-02-21 20:14:00,33.0,32.0,29.83,NNE,29,0.0,0.0,96,0.00,,---,0.00,VWS V14.01,2013-02-22 02:14:00,
2013-02-21 20:17:00,33.0,32.0,29.83,NNE,29,0.0,0.0,96,0.00,,---,0.00,VWS V14.01,2013-02-22 02:17:00,
2013-02-21 20:18:00,33.0,32.0,29.83,NNE,29,0.0,0.0,96,0.00,,---,0.00,VWS V14.01,2013-02-22 02:18:00,
2013-02-21 20:20:00,33.0,32.0,29.82,NNE,29,0.0,0.0,96,0.00,,---,0.00,VWS V14.01,2013-02-22 02:20:00,
2013-02-21 20:22:00,33.0,32.0,29.82,NNE,29,0.0,0.0,96,0.00,,---,0.00,VWS V14.01,2013-02-22 02:22:00,
2013-02-21 20:23:00,33.0,32.0,29.82,NNE,29,0.0,0.0,96,0.00,,---,0.00,VWS V14.01,2013-02-22 02:23:00,
2013-02-21 20:24:00,33.0,32.0,29.82,NNE,29,0.0,0.0,96,0.00,,---,0.00,VWS V14.01,2013-02-22 02:24:00,
2013-02-21 20:25:00,33.0,32.0,29.82,NNE,29,0.0,0.0,96,0.00,,---,0.00,VWS V14.01,2013-02-22 02:25:00,
2013-02-21 20:27:00,33.1,32.1,29.82,NNE,29,0.0,0.0,96,0.00,,---,0.00,VWS V14.01,2013-02-22 02:27:00,
2013-02-21 20:29:00,33.1,32.1,29.82,NNE,29,0.0,0.0,96,0.00,,---,0.00,VWS V14.01,2013-02-22 02:29:00,
2013-02-21 20:30:00,33.1,32.1,29.82,NNE,29,0.0,0.0,96,0.00,,---,0.00,VWS V14.01,2013-02-22 02:30:00,
2013-02-21 20:32:00,33.2,32.2,29.83,NNE,29,0.0,0.0,96,0.00,,---,0.00,VWS V14.01,2013-02-22 02:32:00,
2013-02-21 20:34:00,33.2,32.2,29.83,NNE,29,0.0,0.0,96,0.00,,---,0.00,VWS V14.01,2013-02-22 02:34:00,
2013-02-21 20:36:00,33.2,32.2,29.83,NNE,29,0.0,0.0,96,0.00,,---,0.00,VWS V14.01,2013-02-22 02:36:00,
2013-02-21 20:37:00,33.2,32.2,29.83,NNE,29,0.0,0.0,96,0.00,,---,0.00,VWS V14.01,2013-02-22 02:37:00,
2013-02-21 20:39:00,33.3,32.3,29.83,NNE,29,0.0,0.0,96,0.00,,---,0.00,VWS V14.01,2013-02-22 02:39:00,
2013-02-21 20:49:00,33.3,32.3,29.83,NNE,29,0.0,0.0,96,0.00,,---,0.00,VWS V14.01,2013-02-22 02:49:00,
2013-02-21 20:54:00,33.5,32.5,29.83,NNE,29,0.0,0.0,96,0.00,,---,0.00,VWS V14.01,2013-02-22 02:54:00,
2013-02-21 20:59:00,33.6,32.3,29.84,NNE,29,0.0,0.0,95,0.00,,---,0.00,VWS V14.01,2013-02-22 02:59:00,
2013-02-21 21:00:00,33.5,32.2,29.84,NNE,29,0.0,0.0,95,0.00,,---,0.00,VWS V14.01,2013-02-22 03:00:00,
2013-02-21 21:01:00,33.6,32.3,29.84,NNE,29,0.0,0.0,95,0.00,,---,0.00,VWS V14.01,2013-02-22 03:01:00,
2013-02-21 21:04:00,33.7,32.7,29.84,NNE,29,0.0,0.0,96,0.00,,---,0.00,VWS V14.01,2013-02-22 03:04:00,
2013-02-21 21:05:00,33.7,32.7,29.84,NNE,29,0.0,0.0,96,0.00,,---,0.00,VWS V14.01,2013-02-22 03:05:00,
2013-02-21 21:06:00,33.7,32.7,29.84,NNE,29,0.0,0.0,96,0.00,,---,0.00,VWS V14.01,2013-02-22 03:06:00,
2013-02-21 21:10:00,33.7,32.4,29.84,NNE,29,0.0,0.0,95,0.00,,---,0.00,VWS V14.01,2013-02-22 03:10:00,
2013-02-21 21:13:00,33.9,32.6,29.84,NNE,29,0.0,0.0,95,0.00,,---,0.00,VWS V14.01,2013-02-22 03:13:00,
2013-02-21 21:30:00,33.9,32.6,29.84,NNE,29,0.0,0.0,95,0.00,,---,0.00,VWS V14.01,2013-02-22 03:30:00,
2013-02-21 22:00:00,33.7,32.7,29.84,NNE,29,0.0,0.0,96,0.00,,---,0.00,VWS V14.01,2013-02-22 04:00:00,
2013-02-21 22:30:00,33.3,32.3,29.82,NNE,29,0.0,0.0,96,0.00,,---,0.00,VWS V14.01,2013-02-22 04:30:00,
2013-02-21 23:00:00,33.4,32.4,29.81,NNE,29,0.0,0.0,96,0.00,,---,0.00,VWS V14.01,2013-02-22 05:00:00,
2013-02-21 23:22:00,33.2,32.2,29.80,NNE,29,0.0,0.0,96,0.00,,---,0.00,VWS V14.01,2013-02-22 05:22:00,
2013-02-21 23:30:00,33.2,32.4,29.81,NNE,29,0.0,0.0,97,0.00,,---,0.00,VWS V14.01,2013-02-22 05:30:00,
2013-02-21 23:58:00,33.6,32.8,29.83,NNE,29,0.0,0.0,97,0.00,,---,0.00,VWS V14.01,2013-02-22 05:58:00,
2013-02-21 23:59:00,33.6,32.8,29.83,NNE,29,0.0,0.0,97,0.00,,---,0.00,VWS V14.01,2013-02-22 05:59:00,